Time,TemperatureF,DewpointF,PressureIn,WindDirection,WindDirectionDegrees,WindSpeedMPH,WindSpeedGustMPH,Humidity,HourlyPrecipIn,Conditions,Clouds,dailyrainin,SoftwareType,DateUTC
2013-07-23 00:04:00,69.4,66.0,29.89,ESE,113,0.0,1.0,89,0.00,,,0.00,Wunderground v.1.15,2013-07-23 04:04:00,
2013-07-23 00:05:00,69.4,66.0,29.89,ESE,113,1.0,3.0,89,0.00,,,0.00,Wunderground v.1.15,2013-07-23 04:05:00,
2013-07-23 00:07:00,69.4,66.0,29.89,East,80,1.0,4.0,89,0.00,,,0.00,Wunderground v.1.15,2013-07-23 04:07:00,
2013-07-23 00:09:00,69.3,65.9,29.88,East,80,1.0,4.0,89,0.00,,,0.00,Wunderground v.1.15,2013-07-23 04:09:00,
2013-07-23 00:10:00,69.3,65.9,29.88,East,80,3.0,4.0,89,0.00,,,0.00,Wunderground v.1.15,2013-07-23 04:10:00,
2013-07-23 00:12:00,69.2,65.8,29.88,East,80,1.0,4.0,89,0.00,,,0.00,Wunderground v.1.15,2013-07-23 04:12:00,
2013-07-23 00:15:00,69.2,65.8,29.88,East,80,0.0,1.0,89,0.00,,,0.00,Wunderground v.1.15,2013-07-23 04:15:00,
2013-07-23 00:17:00,69.2,65.8,29.88,East,80,0.0,1.0,89,0.00,,,0.00,Wunderground v.1.15,2013-07-23 04:17:00,
2013-07-23 00:20:00,69.2,65.8,29.88,East,80,1.0,2.0,89,0.00,,,0.00,Wunderground v.1.15,2013-07-23 04:20:00,
2013-07-23 00:21:00,69.2,65.8,29.88,ENE,65,4.0,4.0,89,0.00,,,0.00,Wunderground v.1.15,2013-07-23 04:21:00,
2013-07-23 00:22:00,69.1,65.7,29.88,ENE,65,1.0,4.0,89,0.00,,,0.00,Wunderground v.1.15,2013-07-23 04:22:00,
2013-07-23 00:27:00,69.1,65.7,29.87,ENE,65,1.0,2.0,89,0.00,,,0.00,Wunderground v.1.15,2013-07-23 04:27:00,
2013-07-23 00:28:00,69.0,65.6,29.87,ENE,65,0.0,2.0,89,0.00,,,0.00,Wunderground v.1.15,2013-07-23 04:28:00,
2013-07-23 00:29:00,69.1,65.7,29.87,East,94,1.0,2.0,89,0.00,,,0.00,Wunderground v.1.15,2013-07-23 04:29:00,
2013-07-23 00:30:00,69.1,65.7,29.87,East,94,0.0,2.0,89,0.00,,,0.00,Wunderground v.1.15,2013-07-23 04:30:00,
2013-07-23 00:33:00,69.1,65.7,29.87,East,94,0.0,2.0,89,0.00,,,0.00,Wunderground v.1.15,2013-07-23 04:33:00,
2013-07-23 00:34:00,69.1,65.7,29.87,East,94,0.0,0.0,89,0.00,,,0.00,Wunderground v.1.15,2013-07-23 04:34:00,
2013-07-23 00:35:00,69.0,65.6,29.87,East,94,1.0,1.0,89,0.00,,,0.00,Wunderground v.1.15,2013-07-23 04:35:00,
2013-07-23 00:37:00,69.0,65.6,29.87,ENE,63,2.0,2.0,89,0.00,,,0.00,Wunderground v.1.15,2013-07-23 04:37:00,
2013-07-23 00:38:00,69.0,65.6,29.87,ENE,63,0.0,2.0,89,0.00,,,0.00,Wunderground v.1.15,2013-07-23 04:38:00,
2013-07-23 00:39:00,69.0,65.6,29.87,ENE,63,0.0,2.0,89,0.00,,,0.00,Wunderground v.1.15,2013-07-23 04:39:00,
2013-07-23 00:40:00,69.0,65.6,29.87,ENE,63,0.0,2.0,89,0.00,,,0.00,Wunderground v.1.15,2013-07-23 04:40:00,
2013-07-23 00:46:00,69.0,65.9,29.86,ENE,63,0.0,1.0,90,0.00,,,0.00,Wunderground v.1.15,2013-07-23 04:46:00,
2013-07-23 00:47:00,69.0,65.9,29.86,ENE,63,1.0,1.0,90,0.00,,,0.00,Wunderground v.1.15,2013-07-23 04:47:00,
2013-07-23 00:51:00,69.0,65.9,29.86,ENE,78,0.0,1.0,90,0.00,,,0.00,Wunderground v.1.15,2013-07-23 04:51:00,
2013-07-23 00:53:00,69.0,65.9,29.86,ENE,78,0.0,1.0,90,0.00,,,0.00,Wunderground v.1.15,2013-07-23 04:53:00,
2013-07-23 00:54:00,69.0,65.9,29.86,ENE,78,0.0,0.0,90,0.00,,,0.00,Wunderground v.1.15,2013-07-23 04:54:00,
2013-07-23 00:56:00,68.9,65.8,29.86,ENE,78,2.0,2.0,90,0.00,,,0.00,Wunderground v.1.15,2013-07-23 04:56:00,
2013-07-23 00:59:00,68.9,65.8,29.86,ENE,78,1.0,2.0,90,0.00,,,0.00,Wunderground v.1.15,2013-07-23 04:59:00,
2013-07-23 01:00:00,68.8,65.7,29.86,ENE,78,2.0,2.0,90,0.00,,,0.00,Wunderground v.1.15,2013-07-23 05:00:00,
2013-07-23 01:01:00,68.8,65.7,29.86,ENE,78,1.0,2.0,90,0.00,,,0.00,Wunderground v.1.15,2013-07-23 05:01:00,
2013-07-23 01:02:00,68.8,65.7,29.86,ENE,78,1.0,2.0,90,0.00,,,0.00,Wunderground v.1.15,2013-07-23 05:02:00,
2013-07-23 01:05:00,68.8,65.7,29.86,ENE,78,1.0,1.0,90,0.00,,,0.00,Wunderground v.1.15,2013-07-23 05:05:00,
2013-07-23 01:06:00,68.8,65.7,29.86,ENE,78,1.0,1.0,90,0.00,,,0.00,Wunderground v.1.15,2013-07-23 05:06:00,
2013-07-23 01:08:00,68.8,65.7,29.86,ENE,78,0.0,1.0,90,0.00,,,0.00,Wunderground v.1.15,2013-07-23 05:08:00,
2013-07-23 01:09:00,68.8,65.7,29.86,ENE,78,1.0,1.0,90,0.00,,,0.00,Wunderground v.1.15,2013-07-23 05:09:00,
2013-07-23 01:12:00,68.8,65.7,29.86,ENE,78,0.0,2.0,90,0.00,,,0.00,Wunderground v.1.15,2013-07-23 05:12:00,
2013-07-23 01:14:00,68.8,65.7,29.85,ENE,78,0.0,1.0,90,0.00,,,0.00,Wunderground v.1.15,2013-07-23 05:14:00,
2013-07-23 01:15:00,68.8,65.7,29.85,ENE,78,0.0,1.0,90,0.00,,,0.00,Wunderground v.1.15,2013-07-23 05:15:00,
2013-07-23 01:18:00,68.8,65.7,29.85,ENE,78,0.0,1.0,90,0.00,,,0.00,Wunderground v.1.15,2013-07-23 05:18:00,
2013-07-23 01:19:00,68.8,65.7,29.85,ENE,78,0.0,1.0,90,0.00,,,0.00,Wunderground v.1.15,2013-07-23 05:19:00,
2013-07-23 01:22:00,68.8,65.7,29.85,ENE,78,0.0,1.0,90,0.00,,,0.00,Wunderground v.1.15,2013-07-23 05:22:00,
2013-07-23 01:24:00,68.8,65.7,29.84,ENE,78,0.0,0.0,90,0.00,,,0.00,Wunderground v.1.15,2013-07-23 05:24:00,
2013-07-23 01:25:00,68.8,65.7,29.84,ENE,78,0.0,0.0,90,0.00,,,0.00,Wunderground v.1.15,2013-07-23 05:25:00,
2013-07-23 01:27:00,68.8,65.7,29.84,ENE,78,1.0,1.0,90,0.00,,,0.00,Wunderground v.1.15,2013-07-23 05:27:00,
2013-07-23 01:32:00,68.7,65.6,29.84,ENE,78,0.0,1.0,90,0.00,,,0.00,Wunderground v.1.15,2013-07-23 05:32:00,
2013-07-23 01:33:00,68.7,65.6,29.84,ENE,78,0.0,1.0,90,0.00,,,0.00,Wunderground v.1.15,2013-07-23 05:33:00,
2013-07-23 01:34:00,68.7,65.6,29.84,ENE,78,0.0,1.0,90,0.00,,,0.00,Wunderground v.1.15,2013-07-23 05:34:00,
2013-07-23 01:36:00,68.8,65.7,29.84,ENE,78,0.0,1.0,90,0.00,,,0.00,Wunderground v.1.15,2013-07-23 05:36:00,
2013-07-23 01:38:00,68.8,65.7,29.84,ENE,78,0.0,2.0,90,0.00,,,0.00,Wunderground v.1.15,2013-07-23 05:38:00,
2013-07-23 01:42:00,68.8,65.7,29.84,ENE,78,0.0,2.0,90,0.00,,,0.00,Wunderground v.1.15,2013-07-23 05:42:00,
2013-07-23 01:43:00,68.8,65.7,29.83,ENE,78,0.0,2.0,90,0.00,,,0.00,Wunderground v.1.15,2013-07-23 05:43:00,
2013-07-23 01:44:00,68.8,65.7,29.83,ENE,78,0.0,0.0,90,0.00,,,0.00,Wunderground v.1.15,2013-07-23 05:44:00,
2013-07-23 01:45:00,68.8,65.7,29.83,ENE,78,0.0,0.0,90,0.00,,,0.00,Wunderground v.1.15,2013-07-23 05:45:00,
2013-07-23 01:47:00,68.8,65.7,29.83,ENE,78,0.0,0.0,90,0.00,,,0.00,Wunderground v.1.15,2013-07-23 05:47:00,
2013-07-23 01:48:00,68.8,65.7,29.83,ENE,78,0.0,0.0,90,0.00,,,0.00,Wunderground v.1.15,2013-07-23 05:48:00,
2013-07-23 01:50:00,68.8,65.7,29.83,East,80,0.0,0.0,90,0.00,,,0.00,Wunderground v.1.15,2013-07-23 05:50:00,
2013-07-23 01:53:00,68.8,65.7,29.83,East,80,0.0,0.0,90,0.00,,,0.00,Wunderground v.1.15,2013-07-23 05:53:00,
2013-07-23 01:54:00,68.8,65.7,29.83,East,80,0.0,0.0,90,0.00,,,0.00,Wunderground v.1.15,2013-07-23 05:54:00,
2013-07-23 01:57:00,68.8,65.7,29.83,East,80,1.0,1.0,90,0.00,,,0.00,Wunderground v.1.15,2013-07-23 05:57:00,
2013-07-23 01:58:00,68.8,65.7,29.83,East,80,0.0,1.0,90,0.00,,,0.00,Wunderground v.1.15,2013-07-23 05:58:00,
2013-07-23 01:59:00,68.8,65.7,29.83,East,80,3.0,3.0,90,0.00,,,0.00,Wunderground v.1.15,2013-07-23 05:59:00,
2013-07-23 02:02:00,68.8,65.7,29.83,East,80,2.0,3.0,90,0.00,,,0.00,Wunderground v.1.15,2013-07-23 06:02:00,
2013-07-23 02:06:00,68.8,65.7,29.83,East,80,0.0,1.0,90,0.00,,,0.00,Wunderground v.1.15,2013-07-23 06:06:00,
2013-07-23 02:08:00,68.8,65.7,29.83,East,85,0.0,2.0,90,0.00,,,0.00,Wunderground v.1.15,2013-07-23 06:08:00,
2013-07-23 02:09:00,68.8,65.7,29.83,East,85,0.0,2.0,90,0.00,,,0.00,Wunderground v.1.15,2013-07-23 06:09:00,
2013-07-23 02:12:00,68.8,65.7,29.83,East,85,1.0,2.0,90,0.00,,,0.00,Wunderground v.1.15,2013-07-23 06:12:00,
2013-07-23 02:14:00,68.8,65.7,29.83,East,85,0.0,1.0,90,0.00,,,0.00,Wunderground v.1.15,2013-07-23 06:14:00,
2013-07-23 02:15:00,68.8,65.7,29.82,East,85,3.0,3.0,90,0.00,,,0.00,Wunderground v.1.15,2013-07-23 06:15:00,
2013-07-23 02:17:00,68.8,65.7,29.83,East,85,1.0,3.0,90,0.00,,,0.00,Wunderground v.1.15,2013-07-23 06:17:00,
2013-07-23 02:20:00,68.7,65.6,29.82,SE,135,0.0,3.0,90,0.00,,,0.00,Wunderground v.1.15,2013-07-23 06:20:00,
2013-07-23 02:23:00,68.7,65.6,29.82,SE,135,0.0,3.0,90,0.00,,,0.00,Wunderground v.1.15,2013-07-23 06:23:00,
2013-07-23 02:24:00,68.7,65.6,29.82,SE,135,0.0,1.0,90,0.00,,,0.00,Wunderground v.1.15,2013-07-23 06:24:00,
2013-07-23 02:25:00,68.7,65.6,29.82,ESE,120,2.0,2.0,90,0.00,,,0.00,Wunderground v.1.15,2013-07-23 06:25:00,
2013-07-23 02:28:00,68.7,65.3,29.82,ESE,119,1.0,3.0,89,0.00,,,0.00,Wunderground v.1.15,2013-07-23 06:28:00,
2013-07-23 02:30:00,68.7,65.3,29.82,ESE,119,2.0,3.0,89,0.00,,,0.00,Wunderground v.1.15,2013-07-23 06:30:00,
2013-07-23 02:33:00,68.7,65.3,29.82,ESE,119,2.0,3.0,89,0.00,,,0.00,Wunderground v.1.15,2013-07-23 06:33:00,
2013-07-23 02:35:00,68.7,65.3,29.81,ESE,119,1.0,3.0,89,0.00,,,0.00,Wunderground v.1.15,2013-07-23 06:35:00,
2013-07-23 02:36:00,68.7,65.3,29.82,ESE,119,0.0,3.0,89,0.00,,,0.00,Wunderground v.1.15,2013-07-23 06:36:00,
2013-07-23 02:38:00,68.7,65.3,29.81,ESE,119,0.0,3.0,89,0.00,,,0.00,Wunderground v.1.15,2013-07-23 06:38:00,
2013-07-23 02:40:00,68.7,65.3,29.81,ESE,119,0.0,3.0,89,0.00,,,0.00,Wunderground v.1.15,2013-07-23 06:40:00,
2013-07-23 02:41:00,68.7,65.3,29.81,ESE,119,0.0,3.0,89,0.00,,,0.00,Wunderground v.1.15,2013-07-23 06:41:00,
2013-07-23 02:44:00,68.7,65.3,29.81,ESE,119,0.0,3.0,89,0.00,,,0.00,Wunderground v.1.15,2013-07-23 06:44:00,
2013-07-23 02:45:00,68.7,65.3,29.81,ESE,119,0.0,1.0,89,0.00,,,0.00,Wunderground v.1.15,2013-07-23 06:45:00,
2013-07-23 02:46:00,68.7,65.3,29.81,ESE,119,0.0,1.0,89,0.00,,,0.00,Wunderground v.1.15,2013-07-23 06:46:00,
2013-07-23 02:49:00,68.7,65.3,29.81,ESE,119,0.0,2.0,89,0.00,,,0.00,Wunderground v.1.15,2013-07-23 06:49:00,
2013-07-23 02:50:00,68.7,65.3,29.81,ESE,119,0.0,2.0,89,0.00,,,0.00,Wunderground v.1.15,2013-07-23 06:50:00,
2013-07-23 02:51:00,68.7,65.3,29.81,ESE,119,1.0,2.0,89,0.00,,,0.00,Wunderground v.1.15,2013-07-23 06:51:00,
2013-07-23 02:54:00,68.7,65.3,29.81,ESE,119,0.0,0.0,89,0.00,,,0.00,Wunderground v.1.15,2013-07-23 06:54:00,
2013-07-23 02:55:00,68.7,65.3,29.81,ESE,119,1.0,1.0,89,0.00,,,0.00,Wunderground v.1.15,2013-07-23 06:55:00,
2013-07-23 02:56:00,68.7,65.3,29.81,ESE,119,1.0,1.0,89,0.00,,,0.00,Wunderground v.1.15,2013-07-23 06:56:00,
2013-07-23 02:57:00,68.7,65.3,29.81,ESE,119,0.0,1.0,89,0.00,,,0.00,Wunderground v.1.15,2013-07-23 06:57:00,
2013-07-23 02:59:00,68.7,65.3,29.80,ESE,119,1.0,1.0,89,0.00,,,0.00,Wunderground v.1.15,2013-07-23 06:59:00,
2013-07-23 03:01:00,68.7,65.3,29.80,ESE,119,0.0,1.0,89,0.00,,,0.00,Wunderground v.1.15,2013-07-23 07:01:00,
2013-07-23 03:02:00,68.8,65.4,29.80,ESE,119,0.0,1.0,89,0.00,,,0.00,Wunderground v.1.15,2013-07-23 07:02:00,
2013-07-23 03:04:00,68.8,65.4,29.80,ESE,119,0.0,1.0,89,0.00,,,0.00,Wunderground v.1.15,2013-07-23 07:04:00,
2013-07-23 03:06:00,68.8,65.4,29.80,ESE,119,1.0,3.0,89,0.00,,,0.00,Wunderground v.1.15,2013-07-23 07:06:00,
2013-07-23 03:07:00,68.8,65.4,29.80,ESE,119,1.0,3.0,89,0.00,,,0.00,Wunderground v.1.15,2013-07-23 07:07:00,
2013-07-23 03:10:00,68.7,65.3,29.80,ESE,119,0.0,3.0,89,0.00,,,0.00,Wunderground v.1.15,2013-07-23 07:10:00,
2013-07-23 03:11:00,68.7,65.3,29.80,East,82,1.0,3.0,89,0.00,,,0.00,Wunderground v.1.15,2013-07-23 07:11:00,
2013-07-23 03:12:00,68.7,65.3,29.80,East,82,1.0,3.0,89,0.00,,,0.00,Wunderground v.1.15,2013-07-23 07:12:00,
2013-07-23 03:15:00,68.7,65.3,29.80,East,82,0.0,2.0,89,0.00,,,0.00,Wunderground v.1.15,2013-07-23 07:15:00,
2013-07-23 03:16:00,68.7,65.3,29.79,East,82,0.0,2.0,89,0.00,,,0.00,Wunderground v.1.15,2013-07-23 07:16:00,
2013-07-23 03:17:00,68.7,65.3,29.79,East,82,1.0,2.0,89,0.00,,,0.00,Wunderground v.1.15,2013-07-23 07:17:00,
2013-07-23 03:20:00,68.7,65.3,29.79,East,82,1.0,2.0,89,0.00,,,0.00,Wunderground v.1.15,2013-07-23 07:20:00,
2013-07-23 03:21:00,68.6,65.2,29.79,East,82,0.0,2.0,89,0.00,,,0.00,Wunderground v.1.15,2013-07-23 07:21:00,
2013-07-23 03:22:00,68.6,65.2,29.79,East,82,1.0,2.0,89,0.00,,,0.00,Wunderground v.1.15,2013-07-23 07:22:00,
2013-07-23 03:26:00,68.7,65.3,29.79,East,82,1.0,1.0,89,0.00,,,0.00,Wunderground v.1.15,2013-07-23 07:26:00,
2013-07-23 03:27:00,68.7,65.3,29.79,East,82,0.0,2.0,89,0.00,,,0.00,Wunderground v.1.15,2013-07-23 07:27:00,
2013-07-23 03:31:00,68.7,65.3,29.78,East,82,1.0,2.0,89,0.00,,,0.00,Wunderground v.1.15,2013-07-23 07:31:00,
2013-07-23 03:32:00,68.7,65.3,29.78,East,82,1.0,2.0,89,0.00,,,0.00,Wunderground v.1.15,2013-07-23 07:32:00,
2013-07-23 03:36:00,68.6,65.2,29.78,East,82,0.0,1.0,89,0.00,,,0.00,Wunderground v.1.15,2013-07-23 07:36:00,
2013-07-23 03:37:00,68.6,65.2,29.78,East,82,1.0,1.0,89,0.00,,,0.00,Wunderground v.1.15,2013-07-23 07:37:00,
2013-07-23 03:38:00,68.6,65.2,29.78,East,82,1.0,1.0,89,0.00,,,0.00,Wunderground v.1.15,2013-07-23 07:38:00,
2013-07-23 03:41:00,68.7,65.3,29.78,East,82,1.0,2.0,89,0.00,,,0.00,Wunderground v.1.15,2013-07-23 07:41:00,
2013-07-23 03:42:00,68.7,65.3,29.78,East,82,1.0,2.0,89,0.00,,,0.00,Wunderground v.1.15,2013-07-23 07:42:00,
2013-07-23 03:43:00,68.7,65.3,29.78,East,82,1.0,2.0,89,0.00,,,0.00,Wunderground v.1.15,2013-07-23 07:43:00,
2013-07-23 03:44:00,68.7,65.3,29.78,SE,130,2.0,2.0,89,0.00,,,0.00,Wunderground v.1.15,2013-07-23 07:44:00,
2013-07-23 03:46:00,68.7,65.0,29.78,SSE,147,1.0,2.0,88,0.00,,,0.00,Wunderground v.1.15,2013-07-23 07:46:00,
2013-07-23 03:48:00,68.7,65.0,29.78,SSE,147,0.0,2.0,88,0.00,,,0.00,Wunderground v.1.15,2013-07-23 07:48:00,
2013-07-23 03:49:00,68.7,65.0,29.77,SSE,147,0.0,2.0,88,0.00,,,0.00,Wunderground v.1.15,2013-07-23 07:49:00,
2013-07-23 03:51:00,68.8,65.1,29.77,SSE,147,0.0,2.0,88,0.00,,,0.00,Wunderground v.1.15,2013-07-23 07:51:00,
2013-07-23 03:53:00,68.8,65.1,29.77,SSE,147,1.0,2.0,88,0.00,,,0.00,Wunderground v.1.15,2013-07-23 07:53:00,
2013-07-23 03:54:00,68.8,65.1,29.77,SSE,147,0.0,2.0,88,0.00,,,0.00,Wunderground v.1.15,2013-07-23 07:54:00,
2013-07-23 03:56:00,68.8,65.1,29.78,SE,129,0.0,2.0,88,0.00,,,0.00,Wunderground v.1.15,2013-07-23 07:56:00,
2013-07-23 03:58:00,68.8,65.1,29.78,SE,129,0.0,2.0,88,0.00,,,0.00,Wunderground v.1.15,2013-07-23 07:58:00,
2013-07-23 03:59:00,68.9,65.2,29.77,SE,129,0.0,2.0,88,0.00,,,0.00,Wunderground v.1.15,2013-07-23 07:59:00,
2013-07-23 04:02:00,68.9,65.2,29.77,SE,129,1.0,2.0,88,0.00,,,0.00,Wunderground v.1.15,2013-07-23 08:02:00,
2013-07-23 04:03:00,68.9,65.2,29.77,SE,129,0.0,2.0,88,0.00,,,0.00,Wunderground v.1.15,2013-07-23 08:03:00,
2013-07-23 04:04:00,68.9,65.2,29.77,SE,129,0.0,2.0,88,0.00,,,0.00,Wunderground v.1.15,2013-07-23 08:04:00,
2013-07-23 04:07:00,68.9,65.2,29.77,SE,129,0.0,1.0,88,0.00,,,0.00,Wunderground v.1.15,2013-07-23 08:07:00,
2013-07-23 04:08:00,68.9,65.2,29.77,SE,129,0.0,1.0,88,0.00,,,0.00,Wunderground v.1.15,2013-07-23 08:08:00,
2013-07-23 04:09:00,69.0,65.3,29.77,SE,129,1.0,1.0,88,0.00,,,0.00,Wunderground v.1.15,2013-07-23 08:09:00,
2013-07-23 04:12:00,69.0,65.3,29.77,SE,133,0.0,3.0,88,0.00,,,0.00,Wunderground v.1.15,2013-07-23 08:12:00,
2013-07-23 04:13:00,69.0,65.3,29.77,SE,140,1.0,3.0,88,0.00,,,0.00,Wunderground v.1.15,2013-07-23 08:13:00,
2013-07-23 04:14:00,69.0,65.3,29.77,SE,140,1.0,3.0,88,0.00,,,0.00,Wunderground v.1.15,2013-07-23 08:14:00,
2013-07-23 04:15:00,69.0,65.3,29.76,SE,140,1.0,1.0,88,0.00,,,0.00,Wunderground v.1.15,2013-07-23 08:15:00,
2013-07-23 04:17:00,69.0,65.3,29.76,SE,132,1.0,3.0,88,0.00,,,0.00,Wunderground v.1.15,2013-07-23 08:17:00,
2013-07-23 04:19:00,69.0,65.3,29.76,SE,132,0.0,3.0,88,0.00,,,0.01,Wunderground v.1.15,2013-07-23 08:19:00,
2013-07-23 04:20:00,69.0,65.3,29.76,SE,132,0.0,3.0,88,0.00,,,0.01,Wunderground v.1.15,2013-07-23 08:20:00,
2013-07-23 04:22:00,69.1,65.4,29.76,SE,132,0.0,3.0,88,0.19,,,0.02,Wunderground v.1.15,2013-07-23 08:22:00,
2013-07-23 04:24:00,69.0,65.3,29.76,SE,132,0.0,3.0,88,0.21,,,0.02,Wunderground v.1.15,2013-07-23 08:24:00,
2013-07-23 04:25:00,69.0,65.3,29.76,SE,132,0.0,1.0,88,0.21,,,0.03,Wunderground v.1.15,2013-07-23 08:25:00,
2013-07-23 04:26:00,69.1,65.4,29.76,SE,132,0.0,1.0,88,0.21,,,0.03,Wunderground v.1.15,2013-07-23 08:26:00,
2013-07-23 04:27:00,69.1,65.4,29.76,SE,132,0.0,1.0,88,0.27,,,0.04,Wunderground v.1.15,2013-07-23 08:27:00,
2013-07-23 04:30:00,69.1,65.1,29.76,SE,132,0.0,1.0,87,0.18,,,0.05,Wunderground v.1.15,2013-07-23 08:30:00,
2013-07-23 04:31:00,69.1,65.1,29.76,SE,132,0.0,1.0,87,0.18,,,0.05,Wunderground v.1.15,2013-07-23 08:31:00,
2013-07-23 04:32:00,69.1,65.1,29.75,SE,132,0.0,1.0,87,0.18,,,0.05,Wunderground v.1.15,2013-07-23 08:32:00,
2013-07-23 04:35:00,69.1,65.1,29.75,ENE,75,2.0,3.0,87,0.20,,,0.06,Wunderground v.1.15,2013-07-23 08:35:00,
2013-07-23 04:36:00,69.1,65.1,29.75,ENE,75,0.0,3.0,87,0.17,,,0.06,Wunderground v.1.15,2013-07-23 08:36:00,
2013-07-23 04:37:00,69.0,65.0,29.75,ENE,75,0.0,3.0,87,0.13,,,0.06,Wunderground v.1.15,2013-07-23 08:37:00,
2013-07-23 04:40:00,69.1,65.1,29.75,ENE,75,0.0,3.0,87,0.08,,,0.06,Wunderground v.1.15,2013-07-23 08:40:00,
2013-07-23 04:41:00,69.1,65.1,29.75,ENE,75,0.0,3.0,87,0.07,,,0.06,Wunderground v.1.15,2013-07-23 08:41:00,
2013-07-23 04:42:00,69.1,65.1,29.75,ENE,75,0.0,3.0,87,0.06,,,0.06,Wunderground v.1.15,2013-07-23 08:42:00,
2013-07-23 04:45:00,69.1,65.1,29.75,ENE,75,0.0,1.0,87,0.05,,,0.06,Wunderground v.1.15,2013-07-23 08:45:00,
2013-07-23 04:46:00,69.1,65.1,29.75,ENE,75,0.0,1.0,87,0.04,,,0.06,Wunderground v.1.15,2013-07-23 08:46:00,
2013-07-23 04:47:00,69.1,65.1,29.75,ENE,75,0.0,1.0,87,0.04,,,0.06,Wunderground v.1.15,2013-07-23 08:47:00,
2013-07-23 04:50:00,69.1,65.1,29.75,ENE,75,0.0,1.0,87,0.00,,,0.06,Wunderground v.1.15,2013-07-23 08:50:00,
2013-07-23 04:51:00,69.1,65.1,29.75,ENE,75,0.0,1.0,87,0.00,,,0.06,Wunderground v.1.15,2013-07-23 08:51:00,
2013-07-23 04:53:00,69.1,65.1,29.75,ENE,75,0.0,1.0,87,0.00,,,0.06,Wunderground v.1.15,2013-07-23 08:53:00,
2013-07-23 04:55:00,69.2,65.2,29.75,ENE,75,0.0,1.0,87,0.00,,,0.06,Wunderground v.1.15,2013-07-23 08:55:00,
2013-07-23 04:56:00,69.2,65.2,29.75,ENE,75,0.0,1.0,87,0.00,,,0.06,Wunderground v.1.15,2013-07-23 08:56:00,
2013-07-23 04:58:00,69.2,65.2,29.75,ENE,75,1.0,2.0,87,0.00,,,0.06,Wunderground v.1.15,2013-07-23 08:58:00,
2013-07-23 05:01:00,69.2,65.2,29.75,ENE,75,0.0,2.0,87,0.00,,,0.06,Wunderground v.1.15,2013-07-23 09:01:00,
2013-07-23 05:03:00,69.2,65.2,29.75,ENE,75,0.0,2.0,87,0.00,,,0.06,Wunderground v.1.15,2013-07-23 09:03:00,
2013-07-23 05:06:00,69.2,65.2,29.75,ENE,75,1.0,2.0,87,0.00,,,0.06,Wunderground v.1.15,2013-07-23 09:06:00,
2013-07-23 05:08:00,69.2,65.2,29.75,ENE,75,2.0,2.0,87,0.00,,,0.06,Wunderground v.1.15,2013-07-23 09:08:00,
2013-07-23 05:11:00,70.1,65.7,29.75,NE,55,1.0,4.0,86,0.00,,,0.06,Wunderground v.1.15,2013-07-23 09:11:00,
2013-07-23 05:12:00,71.1,66.7,29.75,NE,55,0.0,4.0,86,0.00,,,0.06,Wunderground v.1.15,2013-07-23 09:12:00,
2013-07-23 05:13:00,73.5,69.1,29.75,NE,55,0.0,4.0,86,0.00,,,0.06,Wunderground v.1.15,2013-07-23 09:13:00,
2013-07-23 05:16:00,77.3,72.8,29.75,NE,56,2.0,2.0,86,0.00,,,0.06,Wunderground v.1.15,2013-07-23 09:16:00,
2013-07-23 05:17:00,77.0,72.1,29.75,NE,56,0.0,2.0,85,0.00,,,0.06,Wunderground v.1.15,2013-07-23 09:17:00,
2013-07-23 05:18:00,77.1,72.2,29.75,NE,56,0.0,2.0,85,0.00,,,0.06,Wunderground v.1.15,2013-07-23 09:18:00,
2013-07-23 05:21:00,75.8,71.0,29.75,NE,56,0.0,2.0,85,0.00,,,0.06,Wunderground v.1.15,2013-07-23 09:21:00,
2013-07-23 05:22:00,75.6,70.8,29.75,NE,56,0.0,2.0,85,0.00,,,0.06,Wunderground v.1.15,2013-07-23 09:22:00,
2013-07-23 05:23:00,75.1,70.3,29.75,NE,56,0.0,2.0,85,0.00,,,0.06,Wunderground v.1.15,2013-07-23 09:23:00,
2013-07-23 05:26:00,72.9,68.1,29.75,ESE,120,0.0,3.0,85,0.00,,,0.07,Wunderground v.1.15,2013-07-23 09:26:00,
2013-07-23 05:27:00,72.4,67.6,29.74,ESE,120,2.0,3.0,85,0.19,,,0.07,Wunderground v.1.15,2013-07-23 09:27:00,
2013-07-23 05:28:00,71.7,67.3,29.74,ESE,120,2.0,3.0,86,0.19,,,0.08,Wunderground v.1.15,2013-07-23 09:28:00,
2013-07-23 05:31:00,70.6,66.9,29.74,ESE,119,2.0,3.0,88,0.20,,,0.09,Wunderground v.1.15,2013-07-23 09:31:00,
2013-07-23 05:32:00,70.4,66.7,29.74,ESE,119,1.0,3.0,88,0.20,,,0.09,Wunderground v.1.15,2013-07-23 09:32:00,
2013-07-23 05:33:00,70.1,66.4,29.74,ESE,119,0.0,3.0,88,0.27,,,0.10,Wunderground v.1.15,2013-07-23 09:33:00,
2013-07-23 05:36:00,69.7,66.0,29.74,ESE,119,0.0,1.0,88,0.18,,,0.11,Wunderground v.1.15,2013-07-23 09:36:00,
2013-07-23 05:37:00,69.7,66.0,29.74,ESE,119,0.0,1.0,88,0.18,,,0.11,Wunderground v.1.15,2013-07-23 09:37:00,
2013-07-23 05:38:00,69.6,65.6,29.74,ESE,119,0.0,1.0,87,0.24,,,0.12,Wunderground v.1.15,2013-07-23 09:38:00,
2013-07-23 05:39:00,69.5,65.5,29.74,ESE,119,0.0,1.0,87,0.24,,,0.12,Wunderground v.1.15,2013-07-23 09:39:00,
2013-07-23 05:41:00,69.5,65.5,29.74,ESE,119,1.0,2.0,87,0.27,,,0.13,Wunderground v.1.15,2013-07-23 09:41:00,
2013-07-23 05:42:00,69.4,65.4,29.74,ESE,119,0.0,2.0,87,0.37,,,0.13,Wunderground v.1.15,2013-07-23 09:42:00,
2013-07-23 05:43:00,69.4,65.4,29.74,ESE,121,2.0,2.0,87,0.37,,,0.14,Wunderground v.1.15,2013-07-23 09:43:00,
2013-07-23 05:44:00,69.4,65.4,29.74,ESE,121,1.0,2.0,87,0.32,,,0.14,Wunderground v.1.15,2013-07-23 09:44:00,
2013-07-23 05:46:00,69.3,65.3,29.74,ESE,121,0.0,1.0,87,0.23,,,0.16,Wunderground v.1.15,2013-07-23 09:46:00,
2013-07-23 05:47:00,69.3,65.3,29.74,ESE,121,1.0,1.0,87,0.23,,,0.16,Wunderground v.1.15,2013-07-23 09:47:00,
2013-07-23 05:48:00,69.4,65.4,29.74,ESE,121,1.0,1.0,87,0.23,,,0.16,Wunderground v.1.15,2013-07-23 09:48:00,
2013-07-23 05:49:00,69.3,65.3,29.74,ESE,120,0.0,1.0,87,0.23,,,0.16,Wunderground v.1.15,2013-07-23 09:49:00,
2013-07-23 05:51:00,69.3,65.3,29.74,ESE,120,0.0,1.0,87,0.15,,,0.17,Wunderground v.1.15,2013-07-23 09:51:00,
2013-07-23 05:52:00,69.3,65.3,29.74,ESE,121,1.0,1.0,87,0.15,,,0.17,Wunderground v.1.15,2013-07-23 09:52:00,
2013-07-23 05:53:00,69.3,65.3,29.74,ESE,121,0.0,2.0,87,0.15,,,0.17,Wunderground v.1.15,2013-07-23 09:53:00,
2013-07-23 05:54:00,69.3,65.3,29.74,ESE,120,0.0,2.0,87,0.15,,,0.17,Wunderground v.1.15,2013-07-23 09:54:00,
2013-07-23 05:56:00,69.4,65.4,29.74,ESE,120,0.0,1.0,87,0.10,,,0.17,Wunderground v.1.15,2013-07-23 09:56:00,
2013-07-23 05:57:00,69.4,65.4,29.74,ESE,121,0.0,1.0,87,0.08,,,0.17,Wunderground v.1.15,2013-07-23 09:57:00,
2013-07-23 05:58:00,69.4,65.4,29.74,ESE,121,1.0,1.0,87,0.08,,,0.17,Wunderground v.1.15,2013-07-23 09:58:00,
2013-07-23 05:59:00,69.4,65.4,29.74,ESE,120,0.0,1.0,87,0.07,,,0.17,Wunderground v.1.15,2013-07-23 09:59:00,
2013-07-23 06:01:00,69.4,65.4,29.74,ESE,120,1.0,2.0,87,0.05,,,0.17,Wunderground v.1.15,2013-07-23 10:01:00,
2013-07-23 06:02:00,69.4,65.4,29.74,ESE,121,0.0,2.0,87,0.05,,,0.17,Wunderground v.1.15,2013-07-23 10:02:00,
2013-07-23 06:04:00,69.4,65.4,29.74,ESE,120,0.0,2.0,87,0.04,,,0.17,Wunderground v.1.15,2013-07-23 10:04:00,
2013-07-23 06:07:00,69.4,65.4,29.74,ESE,120,0.0,2.0,87,0.04,,,0.18,Wunderground v.1.15,2013-07-23 10:07:00,
2013-07-23 06:08:00,69.4,65.4,29.74,ESE,121,0.0,2.0,87,0.04,,,0.18,Wunderground v.1.15,2013-07-23 10:08:00,
2013-07-23 06:09:00,69.4,65.4,29.74,ESE,120,0.0,2.0,87,0.04,,,0.18,Wunderground v.1.15,2013-07-23 10:09:00,
2013-07-23 06:12:00,69.4,65.4,29.73,ESE,121,0.0,3.0,87,0.04,,,0.18,Wunderground v.1.15,2013-07-23 10:12:00,
2013-07-23 06:13:00,69.4,65.4,29.73,ESE,120,0.0,3.0,87,0.04,,,0.18,Wunderground v.1.15,2013-07-23 10:13:00,
2013-07-23 06:14:00,69.4,65.4,29.73,ESE,121,0.0,3.0,87,0.04,,,0.18,Wunderground v.1.15,2013-07-23 10:14:00,
2013-07-23 06:15:00,69.4,65.4,29.73,SE,131,2.0,3.0,87,0.07,,,0.19,Wunderground v.1.15,2013-07-23 10:15:00,
2013-07-23 06:17:00,69.4,65.4,29.73,SE,131,2.0,3.0,87,0.07,,,0.19,Wunderground v.1.15,2013-07-23 10:17:00,
2013-07-23 06:18:00,69.4,65.4,29.73,SE,131,1.0,3.0,87,0.07,,,0.19,Wunderground v.1.15,2013-07-23 10:18:00,
2013-07-23 06:19:00,69.4,65.4,29.73,SE,131,1.0,3.0,87,0.16,,,0.20,Wunderground v.1.15,2013-07-23 10:19:00,
2013-07-23 06:20:00,69.4,65.0,29.73,SE,131,0.0,3.0,86,0.37,,,0.21,Wunderground v.1.15,2013-07-23 10:20:00,
2013-07-23 06:22:00,69.4,65.0,29.73,SE,131,0.0,3.0,86,0.50,,,0.22,Wunderground v.1.15,2013-07-23 10:22:00,
2013-07-23 06:23:00,69.4,65.0,29.73,SE,131,1.0,3.0,86,0.32,,,0.22,Wunderground v.1.15,2013-07-23 10:23:00,
2013-07-23 06:24:00,69.4,65.0,29.73,SE,131,0.0,1.0,86,0.23,,,0.23,Wunderground v.1.15,2013-07-23 10:24:00,
2013-07-23 06:25:00,69.4,65.0,29.73,SE,131,0.0,1.0,86,0.23,,,0.23,Wunderground v.1.15,2013-07-23 10:25:00,
2013-07-23 06:27:00,69.5,65.1,29.73,SE,131,0.0,1.0,86,0.18,,,0.23,Wunderground v.1.15,2013-07-23 10:27:00,
2013-07-23 06:28:00,69.5,65.1,29.73,SE,131,0.0,1.0,86,0.13,,,0.23,Wunderground v.1.15,2013-07-23 10:28:00,
2013-07-23 06:30:00,69.5,65.1,29.73,SE,131,0.0,1.0,86,0.10,,,0.23,Wunderground v.1.15,2013-07-23 10:30:00,
2013-07-23 06:32:00,69.5,65.1,29.73,SE,131,0.0,1.0,86,0.10,,,0.24,Wunderground v.1.15,2013-07-23 10:32:00,
2013-07-23 06:33:00,69.5,65.1,29.73,SE,131,0.0,1.0,86,0.10,,,0.24,Wunderground v.1.15,2013-07-23 10:33:00,
2013-07-23 06:35:00,69.5,65.1,29.73,SE,131,0.0,1.0,86,0.10,,,0.24,Wunderground v.1.15,2013-07-23 10:35:00,
2013-07-23 06:37:00,69.6,65.2,29.73,SE,131,0.0,1.0,86,0.11,,,0.25,Wunderground v.1.15,2013-07-23 10:37:00,
2013-07-23 06:38:00,69.6,65.2,29.73,SE,131,0.0,1.0,86,0.21,,,0.26,Wunderground v.1.15,2013-07-23 10:38:00,
2013-07-23 06:40:00,69.6,65.2,29.73,SE,131,0.0,1.0,86,0.21,,,0.26,Wunderground v.1.15,2013-07-23 10:40:00,
2013-07-23 06:41:00,69.6,65.2,29.73,SE,131,1.0,1.0,86,0.21,,,0.26,Wunderground v.1.15,2013-07-23 10:41:00,
2013-07-23 06:42:00,69.6,65.2,29.72,SE,131,1.0,1.0,86,0.17,,,0.27,Wunderground v.1.15,2013-07-23 10:42:00,
2013-07-23 06:44:00,69.6,65.2,29.72,SE,131,1.0,1.0,86,0.17,,,0.27,Wunderground v.1.15,2013-07-23 10:44:00,
2013-07-23 06:45:00,69.6,65.2,29.72,SE,131,0.0,2.0,86,0.21,,,0.28,Wunderground v.1.15,2013-07-23 10:45:00,
2013-07-23 06:46:00,69.6,65.2,29.72,SE,131,2.0,2.0,86,0.21,,,0.28,Wunderground v.1.15,2013-07-23 10:46:00,
2013-07-23 06:47:00,69.6,65.2,29.72,SE,131,1.0,2.0,86,0.20,,,0.28,Wunderground v.1.15,2013-07-23 10:47:00,
2013-07-23 06:49:00,69.6,65.2,29.72,SE,131,2.0,2.0,86,0.13,,,0.28,Wunderground v.1.15,2013-07-23 10:49:00,
2013-07-23 06:50:00,69.6,65.2,29.72,SE,131,1.0,3.0,86,0.13,,,0.29,Wunderground v.1.15,2013-07-23 10:50:00,
2013-07-23 06:51:00,69.7,65.3,29.72,SE,131,1.0,3.0,86,0.13,,,0.29,Wunderground v.1.15,2013-07-23 10:51:00,
2013-07-23 06:53:00,69.7,65.3,29.71,SE,131,0.0,3.0,86,0.27,,,0.30,Wunderground v.1.15,2013-07-23 10:53:00,
2013-07-23 06:54:00,69.7,65.3,29.71,SE,131,0.0,1.0,86,0.23,,,0.30,Wunderground v.1.15,2013-07-23 10:54:00,
2013-07-23 06:56:00,69.7,65.3,29.71,SE,131,0.0,1.0,86,0.23,,,0.31,Wunderground v.1.15,2013-07-23 10:56:00,
2013-07-23 06:58:00,69.8,65.4,29.71,SE,131,1.0,1.0,86,0.14,,,0.31,Wunderground v.1.15,2013-07-23 10:58:00,
2013-07-23 06:59:00,69.8,65.4,29.71,SE,131,0.0,2.0,86,0.12,,,0.31,Wunderground v.1.15,2013-07-23 10:59:00,
2013-07-23 07:01:00,69.9,65.5,29.71,SE,131,1.0,2.0,86,0.09,,,0.31,Wunderground v.1.15,2013-07-23 11:01:00,
2013-07-23 07:03:00,69.8,65.4,29.71,SE,132,1.0,3.0,86,0.07,,,0.32,Wunderground v.1.15,2013-07-23 11:03:00,
2013-07-23 07:04:00,69.8,65.4,29.71,SE,132,1.0,2.0,86,0.07,,,0.32,Wunderground v.1.15,2013-07-23 11:04:00,
2013-07-23 07:06:00,69.9,65.5,29.71,SE,132,0.0,2.0,86,0.07,,,0.32,Wunderground v.1.15,2013-07-23 11:06:00,
2013-07-23 07:09:00,69.9,65.5,29.71,SSE,150,2.0,2.0,86,0.07,,,0.32,Wunderground v.1.15,2013-07-23 11:09:00,
2013-07-23 07:10:00,69.9,65.5,29.71,SE,146,2.0,8.0,86,0.07,,,0.32,Wunderground v.1.15,2013-07-23 11:10:00,
2013-07-23 07:11:00,69.9,65.5,29.71,SE,146,1.0,8.0,86,0.07,,,0.32,Wunderground v.1.15,2013-07-23 11:11:00,
2013-07-23 07:14:00,69.9,65.5,29.71,SE,146,1.0,8.0,86,0.06,,,0.33,Wunderground v.1.15,2013-07-23 11:14:00,
2013-07-23 07:15:00,70.0,65.6,29.71,SE,146,1.0,2.0,86,0.06,,,0.33,Wunderground v.1.15,2013-07-23 11:15:00,
2013-07-23 07:16:00,70.0,65.6,29.71,SSE,150,3.0,4.0,86,0.06,,,0.33,Wunderground v.1.15,2013-07-23 11:16:00,
2013-07-23 07:19:00,70.0,65.6,29.71,SSE,150,0.0,4.0,86,0.17,,,0.34,Wunderground v.1.15,2013-07-23 11:19:00,
2013-07-23 07:20:00,70.0,65.6,29.71,East,96,2.0,4.0,86,0.17,,,0.34,Wunderground v.1.15,2013-07-23 11:20:00,
2013-07-23 07:21:00,70.0,65.6,29.71,SSE,158,0.0,4.0,86,0.19,,,0.35,Wunderground v.1.15,2013-07-23 11:21:00,
2013-07-23 07:22:00,70.0,65.6,29.71,South,171,2.0,4.0,86,0.19,,,0.35,Wunderground v.1.15,2013-07-23 11:22:00,
2013-07-23 07:24:00,70.1,65.7,29.71,SSE,153,2.0,5.0,86,0.32,,,0.36,Wunderground v.1.15,2013-07-23 11:24:00,
2013-07-23 07:26:00,70.1,65.7,29.71,SSE,153,1.0,4.0,86,0.25,,,0.37,Wunderground v.1.15,2013-07-23 11:26:00,
2013-07-23 07:27:00,70.1,65.7,29.71,SSE,153,0.0,4.0,86,0.25,,,0.37,Wunderground v.1.15,2013-07-23 11:27:00,
2013-07-23 07:29:00,70.1,65.7,29.71,SSE,153,1.0,4.0,86,0.18,,,0.38,Wunderground v.1.15,2013-07-23 11:29:00,
2013-07-23 07:31:00,70.2,65.8,29.71,SSE,153,0.0,4.0,86,0.18,,,0.38,Wunderground v.1.15,2013-07-23 11:31:00,
2013-07-23 07:32:00,70.2,65.8,29.71,SSE,153,1.0,4.0,86,0.17,,,0.38,Wunderground v.1.15,2013-07-23 11:32:00,
2013-07-23 07:34:00,70.2,65.8,29.71,SSE,153,1.0,4.0,86,0.15,,,0.39,Wunderground v.1.15,2013-07-23 11:34:00,
2013-07-23 07:36:00,70.2,65.8,29.71,SSE,153,1.0,1.0,86,0.17,,,0.40,Wunderground v.1.15,2013-07-23 11:36:00,
2013-07-23 07:37:00,70.2,65.8,29.70,SSE,153,0.0,2.0,86,0.17,,,0.40,Wunderground v.1.15,2013-07-23 11:37:00,
2013-07-23 07:39:00,70.2,65.8,29.70,SSE,153,0.0,2.0,86,0.15,,,0.40,Wunderground v.1.15,2013-07-23 11:39:00,
2013-07-23 07:41:00,70.3,65.9,29.71,SSE,153,1.0,2.0,86,0.10,,,0.40,Wunderground v.1.15,2013-07-23 11:41:00,
2013-07-23 07:42:00,70.3,65.9,29.71,SSE,153,0.0,2.0,86,0.09,,,0.40,Wunderground v.1.15,2013-07-23 11:42:00,
2013-07-23 07:45:00,70.3,65.9,29.71,SSE,153,1.0,1.0,86,0.08,,,0.41,Wunderground v.1.15,2013-07-23 11:45:00,
2013-07-23 07:46:00,70.4,66.0,29.70,SSE,153,0.0,2.0,86,0.08,,,0.41,Wunderground v.1.15,2013-07-23 11:46:00,
2013-07-23 07:47:00,70.4,66.0,29.70,SSE,153,0.0,2.0,86,0.08,,,0.41,Wunderground v.1.15,2013-07-23 11:47:00,
2013-07-23 07:50:00,70.5,66.1,29.70,SSE,149,2.0,4.0,86,0.08,,,0.41,Wunderground v.1.15,2013-07-23 11:50:00,
2013-07-23 07:51:00,70.5,66.1,29.70,SSE,149,0.0,4.0,86,0.08,,,0.42,Wunderground v.1.15,2013-07-23 11:51:00,
2013-07-23 07:52:00,70.5,66.1,29.70,SSE,149,0.0,4.0,86,0.08,,,0.42,Wunderground v.1.15,2013-07-23 11:52:00,
2013-07-23 07:53:00,70.5,66.1,29.70,SSE,149,0.0,4.0,86,0.08,,,0.42,Wunderground v.1.15,2013-07-23 11:53:00,
2013-07-23 07:55:00,70.5,66.1,29.70,SSE,167,0.0,3.0,86,0.08,,,0.42,Wunderground v.1.15,2013-07-23 11:55:00,
2013-07-23 07:57:00,70.6,66.2,29.70,SSE,167,0.0,3.0,86,0.08,,,0.42,Wunderground v.1.15,2013-07-23 11:57:00,
2013-07-23 07:58:00,70.6,66.2,29.70,SSE,167,0.0,3.0,86,0.08,,,0.42,Wunderground v.1.15,2013-07-23 11:58:00,
2013-07-23 08:00:00,70.6,66.2,29.69,SSE,167,0.0,3.0,86,0.07,,,0.42,Wunderground v.1.15,2013-07-23 12:00:00,
2013-07-23 08:02:00,70.7,66.3,29.69,SSE,167,1.0,4.0,86,0.06,,,0.43,Wunderground v.1.15,2013-07-23 12:02:00,
2013-07-23 08:03:00,70.7,66.3,29.69,SSE,167,0.0,4.0,86,0.06,,,0.43,Wunderground v.1.15,2013-07-23 12:03:00,
2013-07-23 08:05:00,70.6,66.2,29.69,SSE,167,0.0,1.0,86,0.06,,,0.43,Wunderground v.1.15,2013-07-23 12:05:00,
2013-07-23 08:07:00,70.6,66.2,29.69,SSE,167,3.0,3.0,86,0.06,,,0.43,Wunderground v.1.15,2013-07-23 12:07:00,
2013-07-23 08:08:00,70.7,66.3,29.69,SSE,167,1.0,3.0,86,0.06,,,0.43,Wunderground v.1.15,2013-07-23 12:08:00,
2013-07-23 08:09:00,70.7,66.3,29.69,SSE,167,0.0,3.0,86,0.06,,,0.43,Wunderground v.1.15,2013-07-23 12:09:00,
2013-07-23 08:10:00,70.7,66.3,29.69,SSE,167,1.0,3.0,86,0.06,,,0.43,Wunderground v.1.15,2013-07-23 12:10:00,
2013-07-23 08:12:00,70.7,66.3,29.69,SSE,167,4.0,4.0,86,0.06,,,0.43,Wunderground v.1.15,2013-07-23 12:12:00,
2013-07-23 08:13:00,70.7,66.3,29.69,SSE,167,3.0,4.0,86,0.05,,,0.44,Wunderground v.1.15,2013-07-23 12:13:00,
2013-07-23 08:14:00,70.7,66.3,29.69,SSE,167,0.0,4.0,86,0.05,,,0.44,Wunderground v.1.15,2013-07-23 12:14:00,
2013-07-23 08:15:00,70.8,66.4,29.69,SSE,167,0.0,1.0,86,0.05,,,0.44,Wunderground v.1.15,2013-07-23 12:15:00,
2013-07-23 08:17:00,70.8,66.4,29.69,South,169,0.0,2.0,86,0.05,,,0.44,Wunderground v.1.15,2013-07-23 12:17:00,
2013-07-23 08:18:00,70.8,66.4,29.68,South,169,1.0,2.0,86,0.05,,,0.44,Wunderground v.1.15,2013-07-23 12:18:00,
2013-07-23 08:19:00,70.9,66.5,29.69,South,169,1.0,2.0,86,0.05,,,0.44,Wunderground v.1.15,2013-07-23 12:19:00,
2013-07-23 08:20:00,70.9,66.5,29.69,SSE,153,2.0,4.0,86,0.05,,,0.44,Wunderground v.1.15,2013-07-23 12:20:00,
2013-07-23 08:22:00,71.0,66.6,29.68,SSE,153,1.0,4.0,86,0.05,,,0.44,Wunderground v.1.15,2013-07-23 12:22:00,
2013-07-23 08:24:00,71.0,66.6,29.68,SSE,153,1.0,4.0,86,0.05,,,0.44,Wunderground v.1.15,2013-07-23 12:24:00,
2013-07-23 08:25:00,71.1,66.4,29.68,SSE,153,0.0,2.0,85,0.05,,,0.44,Wunderground v.1.15,2013-07-23 12:25:00,
2013-07-23 08:27:00,71.2,66.5,29.68,South,169,5.0,5.0,85,0.04,,,0.44,Wunderground v.1.15,2013-07-23 12:27:00,
2013-07-23 08:28:00,71.1,66.4,29.68,South,169,2.0,5.0,85,0.04,,,0.44,Wunderground v.1.15,2013-07-23 12:28:00,
2013-07-23 08:29:00,71.1,66.4,29.68,South,169,2.0,5.0,85,0.04,,,0.44,Wunderground v.1.15,2013-07-23 12:29:00,
2013-07-23 08:31:00,71.1,66.4,29.68,South,169,2.0,5.0,85,0.00,,,0.44,Wunderground v.1.15,2013-07-23 12:31:00,
2013-07-23 08:32:00,71.2,66.5,29.68,South,169,0.0,5.0,85,0.00,,,0.44,Wunderground v.1.15,2013-07-23 12:32:00,
2013-07-23 08:33:00,71.2,66.5,29.68,South,169,0.0,5.0,85,0.00,,,0.44,Wunderground v.1.15,2013-07-23 12:33:00,
2013-07-23 08:34:00,71.3,66.6,29.68,South,169,2.0,5.0,85,0.00,,,0.44,Wunderground v.1.15,2013-07-23 12:34:00,
2013-07-23 08:36:00,71.3,66.6,29.68,South,169,1.0,4.0,85,0.00,,,0.44,Wunderground v.1.15,2013-07-23 12:36:00,
2013-07-23 08:37:00,71.4,66.7,29.68,South,169,0.0,4.0,85,0.00,,,0.44,Wunderground v.1.15,2013-07-23 12:37:00,
2013-07-23 08:38:00,71.4,66.7,29.68,South,169,2.0,4.0,85,0.00,,,0.44,Wunderground v.1.15,2013-07-23 12:38:00,
2013-07-23 08:39:00,71.4,66.7,29.68,South,169,2.0,4.0,85,0.00,,,0.44,Wunderground v.1.15,2013-07-23 12:39:00,
2013-07-23 08:41:00,71.4,66.7,29.68,South,169,2.0,4.0,85,0.00,,,0.44,Wunderground v.1.15,2013-07-23 12:41:00,
2013-07-23 08:43:00,71.5,66.8,29.68,South,169,4.0,4.0,85,0.00,,,0.44,Wunderground v.1.15,2013-07-23 12:43:00,
2013-07-23 08:44:00,71.5,66.8,29.68,SSE,157,1.0,4.0,85,0.00,,,0.44,Wunderground v.1.15,2013-07-23 12:44:00,
2013-07-23 08:45:00,71.5,66.8,29.68,SSE,150,2.0,4.0,85,0.00,,,0.44,Wunderground v.1.15,2013-07-23 12:45:00,
2013-07-23 08:46:00,71.5,66.8,29.68,SSE,150,2.0,4.0,85,0.00,,,0.44,Wunderground v.1.15,2013-07-23 12:46:00,
2013-07-23 08:48:00,71.4,66.7,29.68,SSE,151,2.0,4.0,85,0.00,,,0.44,Wunderground v.1.15,2013-07-23 12:48:00,
2013-07-23 08:49:00,71.4,66.7,29.68,SSE,150,1.0,4.0,85,0.00,,,0.44,Wunderground v.1.15,2013-07-23 12:49:00,
2013-07-23 08:50:00,71.4,66.7,29.68,SSE,151,3.0,4.0,85,0.00,,,0.44,Wunderground v.1.15,2013-07-23 12:50:00,
2013-07-23 08:52:00,71.4,66.7,29.68,SSE,151,1.0,4.0,85,0.00,,,0.44,Wunderground v.1.15,2013-07-23 12:52:00,
2013-07-23 08:53:00,71.5,66.8,29.68,South,186,1.0,4.0,85,0.00,,,0.44,Wunderground v.1.15,2013-07-23 12:53:00,
2013-07-23 08:54:00,71.5,66.8,29.68,SE,138,1.0,2.0,85,0.00,,,0.44,Wunderground v.1.15,2013-07-23 12:54:00,
2013-07-23 08:55:00,71.5,66.8,29.67,SE,138,0.0,2.0,85,0.00,,,0.44,Wunderground v.1.15,2013-07-23 12:55:00,
2013-07-23 08:57:00,71.6,66.8,29.67,SSE,161,2.0,4.0,85,0.00,,,0.44,Wunderground v.1.15,2013-07-23 12:57:00,
2013-07-23 08:58:00,71.6,66.8,29.67,SSE,161,1.0,4.0,85,0.00,,,0.44,Wunderground v.1.15,2013-07-23 12:58:00,
2013-07-23 08:59:00,71.6,66.8,29.67,SSE,161,0.0,4.0,85,0.00,,,0.44,Wunderground v.1.15,2013-07-23 12:59:00,
2013-07-23 09:00:00,71.6,66.8,29.67,SSE,161,0.0,4.0,85,0.00,,,0.44,Wunderground v.1.15,2013-07-23 13:00:00,
2013-07-23 09:02:00,71.7,66.9,29.67,SSE,161,0.0,4.0,85,0.00,,,0.44,Wunderground v.1.15,2013-07-23 13:02:00,
2013-07-23 09:03:00,71.8,67.0,29.67,SSE,161,0.0,4.0,85,0.00,,,0.44,Wunderground v.1.15,2013-07-23 13:03:00,
2013-07-23 09:04:00,71.9,67.1,29.67,SSE,161,0.0,1.0,85,0.00,,,0.44,Wunderground v.1.15,2013-07-23 13:04:00,
2013-07-23 09:05:00,71.9,67.1,29.67,SSE,161,0.0,1.0,85,0.00,,,0.44,Wunderground v.1.15,2013-07-23 13:05:00,
2013-07-23 09:07:00,72.0,67.2,29.67,SSE,161,2.0,2.0,85,0.00,,,0.44,Wunderground v.1.15,2013-07-23 13:07:00,
2013-07-23 09:08:00,72.0,67.2,29.67,SSE,161,1.0,2.0,85,0.00,,,0.44,Wunderground v.1.15,2013-07-23 13:08:00,
2013-07-23 09:09:00,71.9,67.1,29.67,SSE,161,0.0,2.0,85,0.00,,,0.44,Wunderground v.1.15,2013-07-23 13:09:00,
2013-07-23 09:10:00,71.9,67.1,29.67,SSE,161,0.0,2.0,85,0.00,,,0.44,Wunderground v.1.15,2013-07-23 13:10:00,
2013-07-23 09:12:00,72.0,67.2,29.67,SSE,161,0.0,2.0,85,0.00,,,0.44,Wunderground v.1.15,2013-07-23 13:12:00,
2013-07-23 09:13:00,72.0,67.2,29.67,SSE,161,0.0,2.0,85,0.00,,,0.44,Wunderground v.1.15,2013-07-23 13:13:00,
2013-07-23 09:15:00,72.1,67.3,29.66,SSE,161,1.0,1.0,85,0.00,,,0.44,Wunderground v.1.15,2013-07-23 13:15:00,
2013-07-23 09:17:00,72.2,67.4,29.66,SE,137,0.0,3.0,85,0.00,,,0.44,Wunderground v.1.15,2013-07-23 13:17:00,
2013-07-23 09:18:00,72.2,67.4,29.66,SE,137,0.0,3.0,85,0.00,,,0.44,Wunderground v.1.15,2013-07-23 13:18:00,
2013-07-23 09:20:00,72.3,67.5,29.66,SE,137,1.0,3.0,85,0.00,,,0.44,Wunderground v.1.15,2013-07-23 13:20:00,
2013-07-23 09:21:00,72.3,67.5,29.66,SE,137,0.0,3.0,85,0.00,,,0.44,Wunderground v.1.15,2013-07-23 13:21:00,
2013-07-23 09:22:00,72.4,67.6,29.66,SSE,160,4.0,5.0,85,0.00,,,0.44,Wunderground v.1.15,2013-07-23 13:22:00,
2013-07-23 09:24:00,72.3,67.5,29.66,SSE,148,2.0,5.0,85,0.00,,,0.44,Wunderground v.1.15,2013-07-23 13:24:00,
2013-07-23 09:25:00,72.3,67.5,29.66,SSE,148,0.0,3.0,85,0.00,,,0.44,Wunderground v.1.15,2013-07-23 13:25:00,
2013-07-23 09:26:00,72.4,67.6,29.66,SSE,148,0.0,3.0,85,0.00,,,0.44,Wunderground v.1.15,2013-07-23 13:26:00,
2013-07-23 09:27:00,72.6,67.8,29.66,South,177,2.0,3.0,85,0.00,,,0.44,Wunderground v.1.15,2013-07-23 13:27:00,
2013-07-23 09:29:00,72.7,67.9,29.66,SSE,152,0.0,4.0,85,0.00,,,0.44,Wunderground v.1.15,2013-07-23 13:29:00,
2013-07-23 09:30:00,72.9,68.1,29.66,South,170,2.0,5.0,85,0.00,,,0.44,Wunderground v.1.15,2013-07-23 13:30:00,
2013-07-23 09:31:00,72.9,68.1,29.66,South,177,1.0,5.0,85,0.00,,,0.44,Wunderground v.1.15,2013-07-23 13:31:00,
2013-07-23 09:32:00,72.9,68.1,29.66,South,177,1.0,5.0,85,0.00,,,0.44,Wunderground v.1.15,2013-07-23 13:32:00,
2013-07-23 09:34:00,73.0,68.2,29.66,South,191,1.0,2.0,85,0.00,,,0.44,Wunderground v.1.15,2013-07-23 13:34:00,
2013-07-23 09:35:00,72.9,68.1,29.66,SSW,192,1.0,4.0,85,0.00,,,0.44,Wunderground v.1.15,2013-07-23 13:35:00,
2013-07-23 09:36:00,72.9,68.1,29.66,SSW,192,2.0,4.0,85,0.00,,,0.44,Wunderground v.1.15,2013-07-23 13:36:00,
2013-07-23 09:37:00,72.9,68.1,29.66,South,189,2.0,4.0,85,0.00,,,0.44,Wunderground v.1.15,2013-07-23 13:37:00,
2013-07-23 09:39:00,72.9,68.1,29.66,South,189,2.0,4.0,85,0.00,,,0.44,Wunderground v.1.15,2013-07-23 13:39:00,
2013-07-23 09:40:00,72.9,68.1,29.66,SSE,161,6.0,6.0,85,0.00,,,0.44,Wunderground v.1.15,2013-07-23 13:40:00,
2013-07-23 09:41:00,72.8,68.0,29.66,South,172,0.0,6.0,85,0.00,,,0.44,Wunderground v.1.15,2013-07-23 13:41:00,
2013-07-23 09:42:00,72.8,68.0,29.66,South,172,3.0,6.0,85,0.00,,,0.44,Wunderground v.1.15,2013-07-23 13:42:00,
2013-07-23 09:45:00,72.7,67.9,29.66,SE,140,1.0,3.0,85,0.00,,,0.44,Wunderground v.1.15,2013-07-23 13:45:00,
2013-07-23 09:46:00,72.7,67.9,29.65,SE,140,2.0,3.0,85,0.00,,,0.44,Wunderground v.1.15,2013-07-23 13:46:00,
2013-07-23 09:47:00,72.8,68.0,29.65,SE,140,0.0,3.0,85,0.00,,,0.44,Wunderground v.1.15,2013-07-23 13:47:00,
2013-07-23 09:50:00,72.7,67.9,29.65,SSE,167,4.0,5.0,85,0.00,,,0.44,Wunderground v.1.15,2013-07-23 13:50:00,
2013-07-23 09:51:00,72.7,67.9,29.65,SSE,167,3.0,5.0,85,0.00,,,0.44,Wunderground v.1.15,2013-07-23 13:51:00,
2013-07-23 09:52:00,72.7,67.9,29.65,SE,142,2.0,8.0,85,0.00,,,0.44,Wunderground v.1.15,2013-07-23 13:52:00,
2013-07-23 09:53:00,72.7,68.3,29.65,SE,142,1.0,8.0,86,0.00,,,0.44,Wunderground v.1.15,2013-07-23 13:53:00,
2013-07-23 09:55:00,72.7,68.3,29.65,SSE,160,2.0,4.0,86,0.00,,,0.44,Wunderground v.1.15,2013-07-23 13:55:00,
2013-07-23 09:56:00,72.7,68.3,29.65,SSW,202,5.0,5.0,86,0.00,,,0.44,Wunderground v.1.15,2013-07-23 13:56:00,
2013-07-23 09:57:00,72.7,68.3,29.65,SSE,150,2.0,6.0,86,0.00,,,0.44,Wunderground v.1.15,2013-07-23 13:57:00,
2013-07-23 09:58:00,72.8,68.4,29.65,South,169,2.0,6.0,86,0.00,,,0.44,Wunderground v.1.15,2013-07-23 13:58:00,
2013-07-23 10:01:00,72.8,68.4,29.65,SSE,165,0.0,6.0,86,0.00,,,0.44,Wunderground v.1.15,2013-07-23 14:01:00,
2013-07-23 10:02:00,72.9,68.5,29.65,SSE,165,2.0,6.0,86,0.00,,,0.44,Wunderground v.1.15,2013-07-23 14:02:00,
2013-07-23 10:04:00,73.1,68.7,29.65,SSE,165,0.0,6.0,86,0.00,,,0.44,Wunderground v.1.15,2013-07-23 14:04:00,
2013-07-23 10:06:00,73.2,68.8,29.65,South,179,2.0,5.0,86,0.00,,,0.44,Wunderground v.1.15,2013-07-23 14:06:00,
2013-07-23 10:07:00,73.2,68.8,29.65,South,179,1.0,5.0,86,0.00,,,0.44,Wunderground v.1.15,2013-07-23 14:07:00,
2013-07-23 10:09:00,73.3,68.9,29.65,SSE,163,1.0,5.0,86,0.00,,,0.44,Wunderground v.1.15,2013-07-23 14:09:00,
2013-07-23 10:11:00,73.3,68.9,29.64,SSE,163,1.0,5.0,86,0.00,,,0.44,Wunderground v.1.15,2013-07-23 14:11:00,
2013-07-23 10:12:00,73.4,69.0,29.64,SSE,163,5.0,5.0,86,0.00,,,0.44,Wunderground v.1.15,2013-07-23 14:12:00,
2013-07-23 10:14:00,73.5,69.1,29.64,South,178,1.0,3.0,86,0.00,,,0.44,Wunderground v.1.15,2013-07-23 14:14:00,
2013-07-23 10:16:00,73.6,69.2,29.64,South,169,5.0,6.0,86,0.00,,,0.44,Wunderground v.1.15,2013-07-23 14:16:00,
2013-07-23 10:17:00,73.6,69.2,29.64,South,180,0.0,6.0,86,0.00,,,0.44,Wunderground v.1.15,2013-07-23 14:17:00,
2013-07-23 10:18:00,73.7,69.6,29.64,South,179,2.0,6.0,87,0.00,,,0.44,Wunderground v.1.15,2013-07-23 14:18:00,
2013-07-23 10:19:00,74.0,69.9,29.64,South,179,1.0,6.0,87,0.00,,,0.44,Wunderground v.1.15,2013-07-23 14:19:00,
2013-07-23 10:21:00,74.0,69.9,29.64,South,170,1.0,6.0,87,0.00,,,0.44,Wunderground v.1.15,2013-07-23 14:21:00,
2013-07-23 10:22:00,74.0,69.9,29.64,SSE,167,1.0,6.0,87,0.00,,,0.44,Wunderground v.1.15,2013-07-23 14:22:00,
2013-07-23 10:23:00,74.0,70.2,29.64,SSE,168,0.0,6.0,88,0.00,,,0.44,Wunderground v.1.15,2013-07-23 14:23:00,
2013-07-23 10:24:00,74.1,70.3,29.64,SSE,149,1.0,3.0,88,0.00,,,0.44,Wunderground v.1.15,2013-07-23 14:24:00,
2013-07-23 10:26:00,74.1,70.3,29.64,SE,146,2.0,6.0,88,0.00,,,0.44,Wunderground v.1.15,2013-07-23 14:26:00,
2013-07-23 10:28:00,74.2,70.4,29.64,SE,146,2.0,6.0,88,0.00,,,0.44,Wunderground v.1.15,2013-07-23 14:28:00,
2013-07-23 10:30:00,74.3,70.5,29.63,South,171,4.0,6.0,88,0.00,,,0.44,Wunderground v.1.15,2013-07-23 14:30:00,
2013-07-23 10:31:00,74.4,70.6,29.63,South,186,2.0,6.0,88,0.00,,,0.44,Wunderground v.1.15,2013-07-23 14:31:00,
2013-07-23 10:33:00,74.7,71.2,29.64,SSE,159,1.0,6.0,89,0.00,,,0.44,Wunderground v.1.15,2013-07-23 14:33:00,
2013-07-23 10:35:00,75.0,71.5,29.64,SSE,165,1.0,4.0,89,0.00,,,0.44,Wunderground v.1.15,2013-07-23 14:35:00,
2013-07-23 10:36:00,75.2,71.7,29.64,South,182,2.0,4.0,89,0.00,,,0.44,Wunderground v.1.15,2013-07-23 14:36:00,
2013-07-23 10:37:00,75.2,71.7,29.63,South,182,1.0,4.0,89,0.00,,,0.44,Wunderground v.1.15,2013-07-23 14:37:00,
2013-07-23 10:38:00,75.4,71.6,29.64,South,184,3.0,4.0,88,0.00,,,0.44,Wunderground v.1.15,2013-07-23 14:38:00,
2013-07-23 10:40:00,75.6,72.1,29.63,SSE,150,3.0,5.0,89,0.00,,,0.44,Wunderground v.1.15,2013-07-23 14:40:00,
2013-07-23 10:41:00,75.6,72.1,29.63,SSE,150,1.0,5.0,89,0.00,,,0.44,Wunderground v.1.15,2013-07-23 14:41:00,
2013-07-23 10:42:00,75.6,71.8,29.63,SSE,161,1.0,5.0,88,0.00,,,0.44,Wunderground v.1.15,2013-07-23 14:42:00,
2013-07-23 10:43:00,75.7,71.9,29.63,SSE,160,1.0,6.0,88,0.00,,,0.44,Wunderground v.1.15,2013-07-23 14:43:00,
2013-07-23 10:44:00,75.6,71.8,29.63,SSE,160,1.0,6.0,88,0.00,,,0.44,Wunderground v.1.15,2013-07-23 14:44:00,
2013-07-23 10:45:00,75.7,71.9,29.63,SSE,152,3.0,5.0,88,0.00,,,0.44,Wunderground v.1.15,2013-07-23 14:45:00,
2013-07-23 10:47:00,75.7,71.9,29.63,South,180,2.0,7.0,88,0.00,,,0.44,Wunderground v.1.15,2013-07-23 14:47:00,
2013-07-23 10:48:00,75.6,71.8,29.63,SSE,155,3.0,7.0,88,0.00,,,0.44,Wunderground v.1.15,2013-07-23 14:48:00,
2013-07-23 10:49:00,75.7,71.9,29.63,SSE,156,6.0,7.0,88,0.00,,,0.44,Wunderground v.1.15,2013-07-23 14:49:00,
2013-07-23 10:50:00,75.6,71.8,29.63,SE,134,2.0,9.0,88,0.00,,,0.44,Wunderground v.1.15,2013-07-23 14:50:00,
2013-07-23 10:52:00,75.6,71.8,29.63,South,185,4.0,9.0,88,0.00,,,0.44,Wunderground v.1.15,2013-07-23 14:52:00,
2013-07-23 10:54:00,75.7,71.9,29.63,ESE,105,2.0,9.0,88,0.00,,,0.44,Wunderground v.1.15,2013-07-23 14:54:00,
2013-07-23 10:56:00,75.7,71.9,29.63,SSE,163,2.0,6.0,88,0.00,,,0.44,Wunderground v.1.15,2013-07-23 14:56:00,
2013-07-23 10:57:00,75.7,71.9,29.63,SSE,162,2.0,6.0,88,0.00,,,0.44,Wunderground v.1.15,2013-07-23 14:57:00,
2013-07-23 10:59:00,75.7,71.9,29.63,South,174,0.0,6.0,88,0.00,,,0.44,Wunderground v.1.15,2013-07-23 14:59:00,
2013-07-23 11:01:00,75.6,71.8,29.63,SSE,162,2.0,7.0,88,0.00,,,0.44,Wunderground v.1.15,2013-07-23 15:01:00,
2013-07-23 11:02:00,75.6,71.8,29.63,SSE,162,0.0,7.0,88,0.00,,,0.44,Wunderground v.1.15,2013-07-23 15:02:00,
2013-07-23 11:03:00,75.6,71.8,29.63,SE,130,2.0,8.0,88,0.00,,,0.44,Wunderground v.1.15,2013-07-23 15:03:00,
2013-07-23 11:04:00,75.6,71.8,29.63,SSE,164,0.0,8.0,88,0.00,,,0.44,Wunderground v.1.15,2013-07-23 15:04:00,
2013-07-23 11:06:00,75.7,71.9,29.63,South,178,2.0,6.0,88,0.00,,,0.44,Wunderground v.1.15,2013-07-23 15:06:00,
2013-07-23 11:07:00,75.8,72.0,29.63,SE,135,4.0,6.0,88,0.00,,,0.44,Wunderground v.1.15,2013-07-23 15:07:00,
2013-07-23 11:08:00,75.8,72.0,29.63,SSW,192,7.0,9.0,88,0.00,,,0.44,Wunderground v.1.15,2013-07-23 15:08:00,
2013-07-23 11:09:00,75.8,71.7,29.63,SE,130,1.0,9.0,87,0.00,,,0.44,Wunderground v.1.15,2013-07-23 15:09:00,
2013-07-23 11:11:00,76.1,72.3,29.63,SE,143,2.0,9.0,88,0.00,,,0.44,Wunderground v.1.15,2013-07-23 15:11:00,
2013-07-23 11:13:00,76.4,72.6,29.63,SSE,168,5.0,9.0,88,0.00,,,0.44,Wunderground v.1.15,2013-07-23 15:13:00,
2013-07-23 11:14:00,76.5,72.3,29.62,South,175,0.0,3.0,87,0.00,,,0.44,Wunderground v.1.15,2013-07-23 15:14:00,
2013-07-23 11:15:00,76.6,72.4,29.63,South,180,3.0,3.0,87,0.00,,,0.44,Wunderground v.1.15,2013-07-23 15:15:00,
2013-07-23 11:17:00,76.7,72.5,29.62,SSE,166,4.0,7.0,87,0.00,,,0.44,Wunderground v.1.15,2013-07-23 15:17:00,
2013-07-23 11:18:00,76.7,72.5,29.62,SSE,167,6.0,8.0,87,0.00,,,0.44,Wunderground v.1.15,2013-07-23 15:18:00,
2013-07-23 11:19:00,76.8,72.6,29.62,ESE,117,4.0,8.0,87,0.00,,,0.44,Wunderground v.1.15,2013-07-23 15:19:00,
2013-07-23 11:20:00,76.7,72.5,29.62,ESE,121,3.0,8.0,87,0.00,,,0.44,Wunderground v.1.15,2013-07-23 15:20:00,
2013-07-23 11:22:00,76.8,72.6,29.62,South,173,3.0,8.0,87,0.00,,,0.44,Wunderground v.1.15,2013-07-23 15:22:00,
2013-07-23 11:23:00,76.8,72.6,29.62,SSW,196,4.0,10.0,87,0.00,,,0.44,Wunderground v.1.15,2013-07-23 15:23:00,
2013-07-23 11:24:00,76.8,72.6,29.62,SSW,201,7.0,10.0,87,0.00,,,0.44,Wunderground v.1.15,2013-07-23 15:24:00,
2013-07-23 11:25:00,76.7,72.2,29.62,SSW,212,4.0,7.0,86,0.00,,,0.44,Wunderground v.1.15,2013-07-23 15:25:00,
2013-07-23 11:27:00,76.6,72.4,29.62,South,179,3.0,7.0,87,0.00,,,0.44,Wunderground v.1.15,2013-07-23 15:27:00,
2013-07-23 11:28:00,76.6,72.4,29.62,SSE,158,5.0,7.0,87,0.00,,,0.44,Wunderground v.1.15,2013-07-23 15:28:00,
2013-07-23 11:29:00,76.6,72.4,29.62,SSE,149,1.0,7.0,87,0.00,,,0.44,Wunderground v.1.15,2013-07-23 15:29:00,
2013-07-23 11:31:00,76.6,72.4,29.62,SE,146,2.0,7.0,87,0.00,,,0.44,Wunderground v.1.15,2013-07-23 15:31:00,
2013-07-23 11:32:00,76.6,72.4,29.62,SE,135,9.0,9.0,87,0.00,,,0.44,Wunderground v.1.15,2013-07-23 15:32:00,
2013-07-23 11:33:00,76.6,72.4,29.62,SSW,205,3.0,12.0,87,0.00,,,0.44,Wunderground v.1.15,2013-07-23 15:33:00,
2013-07-23 11:34:00,76.6,72.4,29.62,SSE,167,1.0,4.0,87,0.00,,,0.44,Wunderground v.1.15,2013-07-23 15:34:00,
2013-07-23 11:35:00,76.6,72.4,29.62,South,171,7.0,7.0,87,0.00,,,0.44,Wunderground v.1.15,2013-07-23 15:35:00,
2013-07-23 11:36:00,76.5,72.3,29.62,South,182,2.0,9.0,87,0.00,,,0.44,Wunderground v.1.15,2013-07-23 15:36:00,
2013-07-23 11:37:00,76.5,72.3,29.61,South,182,1.0,9.0,87,0.00,,,0.44,Wunderground v.1.15,2013-07-23 15:37:00,
2013-07-23 11:38:00,76.6,72.4,29.61,SSE,165,1.0,9.0,87,0.00,,,0.44,Wunderground v.1.15,2013-07-23 15:38:00,
2013-07-23 11:39:00,76.6,72.4,29.61,SSE,153,7.0,9.0,87,0.00,,,0.44,Wunderground v.1.15,2013-07-23 15:39:00,
2013-07-23 11:40:00,76.6,72.4,29.61,SE,135,4.0,9.0,87,0.00,,,0.44,Wunderground v.1.15,2013-07-23 15:40:00,
2013-07-23 11:41:00,76.6,72.4,29.61,East,96,3.0,9.0,87,0.00,,,0.44,Wunderground v.1.15,2013-07-23 15:41:00,
2013-07-23 11:42:00,76.6,72.4,29.61,South,173,0.0,9.0,87,0.00,,,0.44,Wunderground v.1.15,2013-07-23 15:42:00,
2013-07-23 11:44:00,76.6,72.4,29.61,SSE,151,2.0,9.0,87,0.00,,,0.44,Wunderground v.1.15,2013-07-23 15:44:00,
2013-07-23 11:45:00,76.6,72.4,29.61,SE,146,3.0,4.0,87,0.00,,,0.44,Wunderground v.1.15,2013-07-23 15:45:00,
2013-07-23 11:47:00,76.6,72.8,29.61,SSE,153,4.0,4.0,88,0.00,,,0.44,Wunderground v.1.15,2013-07-23 15:47:00,
2013-07-23 11:49:00,76.7,72.9,29.61,South,182,1.0,4.0,88,0.00,,,0.45,Wunderground v.1.15,2013-07-23 15:49:00,
2013-07-23 11:50:00,76.8,73.0,29.61,SE,124,2.0,4.0,88,0.00,,,0.45,Wunderground v.1.15,2013-07-23 15:50:00,
2013-07-23 11:52:00,76.7,72.9,29.61,SSE,153,2.0,4.0,88,0.00,,,0.45,Wunderground v.1.15,2013-07-23 15:52:00,
2013-07-23 11:53:00,76.7,72.9,29.61,SSE,167,1.0,4.0,88,0.00,,,0.45,Wunderground v.1.15,2013-07-23 15:53:00,
2013-07-23 11:54:00,76.7,72.9,29.61,South,171,2.0,4.0,88,0.00,,,0.45,Wunderground v.1.15,2013-07-23 15:54:00,
2013-07-23 11:55:00,76.6,72.8,29.61,South,173,1.0,3.0,88,0.00,,,0.45,Wunderground v.1.15,2013-07-23 15:55:00,
2013-07-23 11:57:00,76.5,72.7,29.61,South,173,0.0,3.0,88,0.07,,,0.46,Wunderground v.1.15,2013-07-23 15:57:00,
2013-07-23 11:58:00,76.5,72.7,29.61,South,173,1.0,3.0,88,1.09,,,0.47,Wunderground v.1.15,2013-07-23 15:58:00,
2013-07-23 11:59:00,76.4,72.6,29.61,South,173,2.0,3.0,88,0.35,,,0.47,Wunderground v.1.15,2013-07-23 15:59:00,
2013-07-23 12:00:00,76.2,72.4,29.61,South,170,2.0,4.0,88,0.19,,,0.47,Wunderground v.1.15,2013-07-23 16:00:00,
2013-07-23 12:01:00,76.2,72.4,29.61,South,170,1.0,4.0,88,0.17,,,0.47,Wunderground v.1.15,2013-07-23 16:01:00,
2013-07-23 12:02:00,76.1,72.3,29.61,South,172,0.0,5.0,88,0.12,,,0.47,Wunderground v.1.15,2013-07-23 16:02:00,
2013-07-23 12:03:00,76.1,72.3,29.61,South,172,1.0,5.0,88,0.09,,,0.47,Wunderground v.1.15,2013-07-23 16:03:00,
2013-07-23 12:04:00,76.1,72.3,29.61,South,172,1.0,5.0,88,0.09,,,0.47,Wunderground v.1.15,2013-07-23 16:04:00,
2013-07-23 12:05:00,76.0,72.2,29.61,South,172,0.0,2.0,88,0.08,,,0.48,Wunderground v.1.15,2013-07-23 16:05:00,
2013-07-23 12:06:00,76.0,72.2,29.61,South,172,0.0,2.0,88,0.08,,,0.48,Wunderground v.1.15,2013-07-23 16:06:00,
2013-07-23 12:07:00,76.0,72.2,29.61,South,172,1.0,2.0,88,0.08,,,0.48,Wunderground v.1.15,2013-07-23 16:07:00,
2013-07-23 12:08:00,76.0,72.2,29.61,South,172,0.0,2.0,88,0.08,,,0.48,Wunderground v.1.15,2013-07-23 16:08:00,
2013-07-23 12:09:00,76.0,72.2,29.61,South,172,1.0,2.0,88,0.08,,,0.48,Wunderground v.1.15,2013-07-23 16:09:00,
2013-07-23 12:10:00,76.0,72.2,29.61,South,172,0.0,2.0,88,0.11,,,0.49,Wunderground v.1.15,2013-07-23 16:10:00,
2013-07-23 12:12:00,76.0,72.2,29.61,South,172,3.0,3.0,88,0.31,,,0.50,Wunderground v.1.15,2013-07-23 16:12:00,
2013-07-23 12:14:00,75.6,72.1,29.61,SSW,201,3.0,7.0,89,0.31,,,0.50,Wunderground v.1.15,2013-07-23 16:14:00,
2013-07-23 12:16:00,75.4,71.9,29.60,SSW,207,2.0,6.0,89,0.14,,,0.50,Wunderground v.1.15,2013-07-23 16:16:00,
2013-07-23 12:17:00,75.4,71.9,29.60,SSE,159,0.0,6.0,89,0.12,,,0.50,Wunderground v.1.15,2013-07-23 16:17:00,
2013-07-23 12:18:00,75.4,71.9,29.60,SSE,159,0.0,6.0,89,0.10,,,0.50,Wunderground v.1.15,2013-07-23 16:18:00,
2013-07-23 12:19:00,75.4,71.9,29.60,SE,134,2.0,6.0,89,0.08,,,0.50,Wunderground v.1.15,2013-07-23 16:19:00,
2013-07-23 12:21:00,75.3,71.5,29.60,SW,215,3.0,6.0,88,0.07,,,0.50,Wunderground v.1.15,2013-07-23 16:21:00,
2013-07-23 12:22:00,75.2,71.4,29.60,SSW,211,1.0,6.0,88,0.06,,,0.50,Wunderground v.1.15,2013-07-23 16:22:00,
2013-07-23 12:23:00,75.3,71.5,29.59,SSW,196,1.0,6.0,88,0.05,,,0.50,Wunderground v.1.15,2013-07-23 16:23:00,
2013-07-23 12:24:00,75.2,71.4,29.60,SSW,205,4.0,6.0,88,0.05,,,0.50,Wunderground v.1.15,2013-07-23 16:24:00,
2013-07-23 12:26:00,75.3,71.5,29.60,SSW,195,1.0,3.0,88,0.04,,,0.50,Wunderground v.1.15,2013-07-23 16:26:00,
2013-07-23 12:27:00,75.3,71.5,29.59,South,191,3.0,6.0,88,0.04,,,0.50,Wunderground v.1.15,2013-07-23 16:27:00,
2013-07-23 12:28:00,75.3,71.5,29.59,South,188,4.0,6.0,88,0.04,,,0.50,Wunderground v.1.15,2013-07-23 16:28:00,
2013-07-23 12:29:00,75.3,71.5,29.59,South,173,1.0,6.0,88,0.04,,,0.50,Wunderground v.1.15,2013-07-23 16:29:00,
2013-07-23 12:31:00,75.3,71.5,29.59,South,180,2.0,6.0,88,0.00,,,0.50,Wunderground v.1.15,2013-07-23 16:31:00,
2013-07-23 12:32:00,75.3,71.8,29.59,South,178,1.0,6.0,89,0.00,,,0.50,Wunderground v.1.15,2013-07-23 16:32:00,
2013-07-23 12:34:00,75.3,71.5,29.59,South,190,2.0,6.0,88,0.00,,,0.50,Wunderground v.1.15,2013-07-23 16:34:00,
2013-07-23 12:35:00,75.4,71.9,29.59,South,190,0.0,2.0,89,0.00,,,0.50,Wunderground v.1.15,2013-07-23 16:35:00,
2013-07-23 12:36:00,75.4,71.9,29.59,South,173,3.0,9.0,89,0.00,,,0.50,Wunderground v.1.15,2013-07-23 16:36:00,
2013-07-23 12:37:00,75.4,71.9,29.60,SSW,202,5.0,9.0,89,0.00,,,0.50,Wunderground v.1.15,2013-07-23 16:37:00,
2013-07-23 12:39:00,75.3,71.5,29.60,SSW,207,2.0,9.0,88,0.00,,,0.50,Wunderground v.1.15,2013-07-23 16:39:00,
2013-07-23 12:40:00,75.3,71.5,29.60,SSW,207,1.0,9.0,88,0.00,,,0.50,Wunderground v.1.15,2013-07-23 16:40:00,
2013-07-23 12:41:00,75.2,71.4,29.59,WSW,239,1.0,9.0,88,0.00,,,0.50,Wunderground v.1.15,2013-07-23 16:41:00,
2013-07-23 12:42:00,75.3,71.5,29.59,WSW,239,2.0,9.0,88,0.00,,,0.50,Wunderground v.1.15,2013-07-23 16:42:00,
2013-07-23 12:44:00,75.3,71.5,29.59,South,175,4.0,4.0,88,0.00,,,0.50,Wunderground v.1.15,2013-07-23 16:44:00,
2013-07-23 12:45:00,75.2,71.4,29.59,SSW,205,5.0,6.0,88,0.00,,,0.50,Wunderground v.1.15,2013-07-23 16:45:00,
2013-07-23 12:47:00,75.2,71.4,29.59,SSW,202,2.0,6.0,88,0.00,,,0.50,Wunderground v.1.15,2013-07-23 16:47:00,
2013-07-23 12:48:00,75.2,71.4,29.59,South,182,4.0,9.0,88,0.00,,,0.50,Wunderground v.1.15,2013-07-23 16:48:00,
2013-07-23 12:49:00,75.2,71.4,29.59,South,184,5.0,9.0,88,0.00,,,0.50,Wunderground v.1.15,2013-07-23 16:49:00,
2013-07-23 12:50:00,75.2,71.4,29.59,SSE,165,4.0,9.0,88,0.00,,,0.50,Wunderground v.1.15,2013-07-23 16:50:00,
2013-07-23 12:52:00,75.2,71.4,29.59,SSE,164,4.0,9.0,88,0.00,,,0.50,Wunderground v.1.15,2013-07-23 16:52:00,
2013-07-23 12:53:00,75.2,71.4,29.59,SSE,158,3.0,9.0,88,0.00,,,0.50,Wunderground v.1.15,2013-07-23 16:53:00,
2013-07-23 12:54:00,75.2,71.4,29.59,SSW,193,6.0,6.0,88,0.00,,,0.50,Wunderground v.1.15,2013-07-23 16:54:00,
2013-07-23 12:55:00,75.3,71.5,29.59,SSE,159,5.0,8.0,88,0.00,,,0.50,Wunderground v.1.15,2013-07-23 16:55:00,
2013-07-23 12:57:00,75.4,71.6,29.59,South,182,1.0,8.0,88,0.00,,,0.50,Wunderground v.1.15,2013-07-23 16:57:00,
2013-07-23 12:58:00,75.6,71.8,29.59,South,188,6.0,9.0,88,0.00,,,0.50,Wunderground v.1.15,2013-07-23 16:58:00,
2013-07-23 12:59:00,75.8,72.0,29.59,SSE,162,4.0,9.0,88,0.00,,,0.50,Wunderground v.1.15,2013-07-23 16:59:00,
2013-07-23 13:00:00,75.8,72.0,29.59,SE,129,5.0,9.0,88,0.00,,,0.50,Wunderground v.1.15,2013-07-23 17:00:00,
2013-07-23 13:01:00,75.9,72.1,29.59,SSW,200,6.0,9.0,88,0.00,,,0.50,Wunderground v.1.15,2013-07-23 17:01:00,
2013-07-23 13:02:00,76.0,72.5,29.59,SE,128,4.0,9.0,89,0.00,,,0.50,Wunderground v.1.15,2013-07-23 17:02:00,
2013-07-23 13:03:00,76.2,72.7,29.59,South,174,0.0,9.0,89,0.00,,,0.50,Wunderground v.1.15,2013-07-23 17:03:00,
2013-07-23 13:04:00,76.3,72.8,29.59,SW,231,8.0,11.0,89,0.00,,,0.50,Wunderground v.1.15,2013-07-23 17:04:00,
2013-07-23 13:05:00,76.3,72.8,29.59,SSW,201,4.0,11.0,89,0.00,,,0.50,Wunderground v.1.15,2013-07-23 17:05:00,
2013-07-23 13:06:00,76.5,72.7,29.59,SSW,209,7.0,11.0,88,0.00,,,0.50,Wunderground v.1.15,2013-07-23 17:06:00,
2013-07-23 13:07:00,76.7,72.9,29.59,South,181,3.0,11.0,88,0.00,,,0.50,Wunderground v.1.15,2013-07-23 17:07:00,
2013-07-23 13:08:00,76.9,73.1,29.59,SW,219,5.0,11.0,88,0.00,,,0.50,Wunderground v.1.15,2013-07-23 17:08:00,
2013-07-23 13:10:00,77.0,73.2,29.59,South,175,3.0,11.0,88,0.00,,,0.50,Wunderground v.1.15,2013-07-23 17:10:00,
2013-07-23 13:11:00,77.1,73.3,29.59,South,178,4.0,11.0,88,0.00,,,0.50,Wunderground v.1.15,2013-07-23 17:11:00,
2013-07-23 13:13:00,77.4,73.6,29.59,SSW,205,9.0,11.0,88,0.00,,,0.50,Wunderground v.1.15,2013-07-23 17:13:00,
2013-07-23 13:14:00,77.6,73.4,29.59,South,184,3.0,11.0,87,0.00,,,0.50,Wunderground v.1.15,2013-07-23 17:14:00,
2013-07-23 13:15:00,77.8,73.6,29.59,SW,225,3.0,8.0,87,0.00,,,0.50,Wunderground v.1.15,2013-07-23 17:15:00,
2013-07-23 13:16:00,77.9,73.7,29.59,SSW,194,4.0,8.0,87,0.00,,,0.50,Wunderground v.1.15,2013-07-23 17:16:00,
2013-07-23 13:18:00,78.4,74.2,29.59,SSW,211,1.0,8.0,87,0.00,,,0.50,Wunderground v.1.15,2013-07-23 17:18:00,
2013-07-23 13:19:00,78.5,74.3,29.59,SE,144,4.0,8.0,87,0.00,,,0.50,Wunderground v.1.15,2013-07-23 17:19:00,
2013-07-23 13:20:00,78.6,74.1,29.58,SSW,205,14.0,14.0,86,0.00,,,0.50,Wunderground v.1.15,2013-07-23 17:20:00,
2013-07-23 13:21:00,78.5,74.0,29.58,South,187,4.0,14.0,86,0.00,,,0.50,Wunderground v.1.15,2013-07-23 17:21:00,
2013-07-23 13:23:00,78.4,73.5,29.58,SSW,198,6.0,14.0,85,0.00,,,0.50,Wunderground v.1.15,2013-07-23 17:23:00,
2013-07-23 13:24:00,78.3,73.8,29.58,South,171,2.0,5.0,86,0.00,,,0.50,Wunderground v.1.15,2013-07-23 17:24:00,
2013-07-23 13:25:00,78.3,73.8,29.58,WSW,258,3.0,7.0,86,0.00,,,0.50,Wunderground v.1.15,2013-07-23 17:25:00,
2013-07-23 13:26:00,78.3,73.8,29.58,SSW,196,2.0,8.0,86,0.00,,,0.50,Wunderground v.1.15,2013-07-23 17:26:00,
2013-07-23 13:28:00,78.5,74.3,29.58,South,171,9.0,9.0,87,0.00,,,0.50,Wunderground v.1.15,2013-07-23 17:28:00,
2013-07-23 13:29:00,78.6,74.1,29.58,South,170,1.0,9.0,86,0.00,,,0.50,Wunderground v.1.15,2013-07-23 17:29:00,
2013-07-23 13:30:00,78.7,74.5,29.58,South,173,3.0,9.0,87,0.00,,,0.50,Wunderground v.1.15,2013-07-23 17:30:00,
2013-07-23 13:31:00,78.7,74.2,29.58,WSW,242,11.0,11.0,86,0.00,,,0.50,Wunderground v.1.15,2013-07-23 17:31:00,
2013-07-23 13:33:00,78.5,74.0,29.58,South,182,5.0,11.0,86,0.00,,,0.50,Wunderground v.1.15,2013-07-23 17:33:00,
2013-07-23 13:35:00,78.4,73.5,29.58,South,188,5.0,12.0,85,0.00,,,0.50,Wunderground v.1.15,2013-07-23 17:35:00,
2013-07-23 13:36:00,78.4,73.9,29.58,SE,145,5.0,12.0,86,0.00,,,0.50,Wunderground v.1.15,2013-07-23 17:36:00,
2013-07-23 13:39:00,78.7,74.2,29.58,SW,222,4.0,12.0,86,0.00,,,0.50,Wunderground v.1.15,2013-07-23 17:39:00,
2013-07-23 13:40:00,78.9,74.4,29.57,South,181,5.0,12.0,86,0.00,,,0.50,Wunderground v.1.15,2013-07-23 17:40:00,
2013-07-23 13:41:00,79.1,74.2,29.57,SSW,196,2.0,12.0,85,0.00,,,0.50,Wunderground v.1.15,2013-07-23 17:41:00,
2013-07-23 13:42:00,79.1,74.2,29.57,SSW,196,4.0,12.0,85,0.00,,,0.50,Wunderground v.1.15,2013-07-23 17:42:00,
2013-07-23 13:44:00,79.3,74.4,29.57,SE,126,5.0,12.0,85,0.00,,,0.50,Wunderground v.1.15,2013-07-23 17:44:00,
2013-07-23 13:45:00,79.4,74.5,29.57,SE,133,5.0,7.0,85,0.00,,,0.50,Wunderground v.1.15,2013-07-23 17:45:00,
2013-07-23 13:47:00,79.4,74.5,29.57,South,172,7.0,8.0,85,0.00,,,0.50,Wunderground v.1.15,2013-07-23 17:47:00,
2013-07-23 13:49:00,79.5,74.6,29.57,ESE,123,4.0,8.0,85,0.00,,,0.50,Wunderground v.1.15,2013-07-23 17:49:00,
2013-07-23 13:50:00,79.5,74.6,29.57,SSE,152,2.0,8.0,85,0.00,,,0.50,Wunderground v.1.15,2013-07-23 17:50:00,
2013-07-23 13:52:00,79.6,74.7,29.57,West,267,3.0,8.0,85,0.00,,,0.50,Wunderground v.1.15,2013-07-23 17:52:00,
2013-07-23 13:53:00,79.6,74.3,29.57,South,169,4.0,8.0,84,0.00,,,0.50,Wunderground v.1.15,2013-07-23 17:53:00,
2013-07-23 13:56:00,79.7,74.8,29.57,SE,144,6.0,6.0,85,0.00,,,0.50,Wunderground v.1.15,2013-07-23 17:56:00,
2013-07-23 13:58:00,79.8,74.5,29.57,SSW,196,6.0,9.0,84,0.00,,,0.50,Wunderground v.1.15,2013-07-23 17:58:00,
2013-07-23 14:01:00,80.3,75.0,29.56,SE,146,3.0,9.0,84,0.00,,,0.50,Wunderground v.1.15,2013-07-23 18:01:00,
2013-07-23 14:03:00,80.4,74.8,29.56,South,169,6.0,9.0,83,0.00,,,0.50,Wunderground v.1.15,2013-07-23 18:03:00,
2013-07-23 14:06:00,80.2,74.6,29.56,SSW,193,5.0,7.0,83,0.00,,,0.50,Wunderground v.1.15,2013-07-23 18:06:00,
2013-07-23 14:09:00,80.0,74.4,29.56,SSW,206,9.0,9.0,83,0.00,,,0.50,Wunderground v.1.15,2013-07-23 18:09:00,
2013-07-23 14:11:00,79.8,74.2,29.56,SSE,164,4.0,9.0,83,0.00,,,0.50,Wunderground v.1.15,2013-07-23 18:11:00,
2013-07-23 14:14:00,80.3,75.0,29.56,SSW,197,8.0,9.0,84,0.00,,,0.50,Wunderground v.1.15,2013-07-23 18:14:00,
2013-07-23 14:15:00,80.3,75.0,29.56,SSW,206,2.0,7.0,84,0.00,,,0.50,Wunderground v.1.15,2013-07-23 18:15:00,
2013-07-23 14:17:00,80.7,75.1,29.56,SW,229,5.0,7.0,83,0.00,,,0.50,Wunderground v.1.15,2013-07-23 18:17:00,
2013-07-23 14:18:00,80.7,75.1,29.56,SSW,198,1.0,7.0,83,0.00,,,0.50,Wunderground v.1.15,2013-07-23 18:18:00,
2013-07-23 14:19:00,80.9,75.2,29.56,SSE,148,4.0,7.0,83,0.00,,,0.50,Wunderground v.1.15,2013-07-23 18:19:00,
2013-07-23 14:20:00,80.9,75.2,29.56,South,175,11.0,11.0,83,0.00,,,0.50,Wunderground v.1.15,2013-07-23 18:20:00,
2013-07-23 14:23:00,80.7,73.6,29.56,West,281,6.0,11.0,79,0.00,,,0.50,Wunderground v.1.15,2013-07-23 18:23:00,
2013-07-23 14:24:00,80.1,73.4,29.56,WSW,252,3.0,4.0,80,0.00,,,0.50,Wunderground v.1.15,2013-07-23 18:24:00,
2013-07-23 14:25:00,79.9,73.9,29.56,WSW,252,1.0,4.0,82,0.00,,,0.50,Wunderground v.1.15,2013-07-23 18:25:00,
2013-07-23 14:28:00,79.8,74.2,29.56,WSW,252,2.0,4.0,83,0.00,,,0.50,Wunderground v.1.15,2013-07-23 18:28:00,
2013-07-23 14:30:00,80.0,74.0,29.56,SSE,152,0.0,7.0,82,0.00,,,0.50,Wunderground v.1.15,2013-07-23 18:30:00,
2013-07-23 14:31:00,80.2,74.6,29.56,South,170,1.0,7.0,83,0.00,,,0.50,Wunderground v.1.15,2013-07-23 18:31:00,
2013-07-23 14:34:00,80.3,74.3,29.56,SSE,163,6.0,8.0,82,0.00,,,0.50,Wunderground v.1.15,2013-07-23 18:34:00,
2013-07-23 14:36:00,80.4,74.4,29.56,SSW,197,2.0,4.0,82,0.00,,,0.50,Wunderground v.1.15,2013-07-23 18:36:00,
2013-07-23 14:37:00,80.5,74.5,29.56,SSE,150,3.0,6.0,82,0.00,,,0.50,Wunderground v.1.15,2013-07-23 18:37:00,
2013-07-23 14:40:00,80.5,74.5,29.56,South,182,1.0,9.0,82,0.00,,,0.50,Wunderground v.1.15,2013-07-23 18:40:00,
2013-07-23 14:41:00,80.7,74.7,29.56,South,190,5.0,9.0,82,0.00,,,0.50,Wunderground v.1.15,2013-07-23 18:41:00,
2013-07-23 14:43:00,80.9,74.5,29.56,SW,223,4.0,9.0,81,0.00,,,0.50,Wunderground v.1.15,2013-07-23 18:43:00,
2013-07-23 14:46:00,81.5,75.5,29.55,SSW,201,9.0,10.0,82,0.00,,,0.50,Wunderground v.1.15,2013-07-23 18:46:00,
2013-07-23 14:48:00,81.8,75.0,29.55,South,189,2.0,10.0,80,0.00,,,0.50,Wunderground v.1.15,2013-07-23 18:48:00,
2013-07-23 14:51:00,82.1,74.6,29.55,SW,214,1.0,10.0,78,0.00,,,0.50,Wunderground v.1.15,2013-07-23 18:51:00,
2013-07-23 14:53:00,82.2,74.7,29.55,SW,218,4.0,10.0,78,0.00,,,0.50,Wunderground v.1.15,2013-07-23 18:53:00,
2013-07-23 14:56:00,82.3,74.7,29.55,SSE,167,6.0,8.0,78,0.00,,,0.50,Wunderground v.1.15,2013-07-23 18:56:00,
2013-07-23 14:57:00,82.3,74.4,29.55,SSE,161,2.0,10.0,77,0.00,,,0.50,Wunderground v.1.15,2013-07-23 18:57:00,
2013-07-23 14:58:00,82.4,74.5,29.55,South,169,2.0,10.0,77,0.00,,,0.50,Wunderground v.1.15,2013-07-23 18:58:00,
2013-07-23 14:59:00,82.4,74.5,29.55,West,260,9.0,10.0,77,0.00,,,0.50,Wunderground v.1.15,2013-07-23 18:59:00,
2013-07-23 15:01:00,82.5,74.2,29.55,West,265,3.0,10.0,76,0.00,,,0.50,Wunderground v.1.15,2013-07-23 19:01:00,
2013-07-23 15:02:00,82.5,74.6,29.55,South,178,5.0,10.0,77,0.00,,,0.50,Wunderground v.1.15,2013-07-23 19:02:00,
2013-07-23 15:03:00,82.7,74.8,29.55,SW,232,3.0,10.0,77,0.00,,,0.50,Wunderground v.1.15,2013-07-23 19:03:00,
2013-07-23 15:04:00,82.8,74.5,29.55,South,189,8.0,10.0,76,0.00,,,0.50,Wunderground v.1.15,2013-07-23 19:04:00,
2013-07-23 15:07:00,82.7,74.0,29.55,SW,225,7.0,9.0,75,0.00,,,0.50,Wunderground v.1.15,2013-07-23 19:07:00,
2013-07-23 15:08:00,82.7,74.4,29.54,West,260,6.0,9.0,76,0.00,,,0.50,Wunderground v.1.15,2013-07-23 19:08:00,
2013-07-23 15:09:00,82.7,74.4,29.54,SSW,198,1.0,9.0,76,0.00,,,0.50,Wunderground v.1.15,2013-07-23 19:09:00,
2013-07-23 15:10:00,82.8,74.1,29.55,SW,236,4.0,9.0,75,0.00,,,0.50,Wunderground v.1.15,2013-07-23 19:10:00,
2013-07-23 15:12:00,82.8,74.5,29.54,South,180,3.0,9.0,76,0.00,,,0.50,Wunderground v.1.15,2013-07-23 19:12:00,
2013-07-23 15:13:00,82.9,74.6,29.54,SW,224,3.0,9.0,76,0.00,,,0.50,Wunderground v.1.15,2013-07-23 19:13:00,
2013-07-23 15:14:00,83.0,74.6,29.54,SW,224,3.0,9.0,76,0.00,,,0.50,Wunderground v.1.15,2013-07-23 19:14:00,
2013-07-23 15:16:00,83.0,74.6,29.54,SW,234,6.0,7.0,76,0.00,,,0.50,Wunderground v.1.15,2013-07-23 19:16:00,
2013-07-23 15:17:00,82.8,74.8,29.54,SW,219,4.0,7.0,77,0.00,,,0.50,Wunderground v.1.15,2013-07-23 19:17:00,
2013-07-23 15:19:00,82.7,74.8,29.54,WSW,244,2.0,7.0,77,0.00,,,0.50,Wunderground v.1.15,2013-07-23 19:19:00,
2013-07-23 15:21:00,82.7,74.8,29.54,SE,126,4.0,7.0,77,0.00,,,0.50,Wunderground v.1.15,2013-07-23 19:21:00,
2013-07-23 15:23:00,82.7,74.4,29.54,SSW,205,3.0,7.0,76,0.00,,,0.50,Wunderground v.1.15,2013-07-23 19:23:00,
2013-07-23 15:24:00,82.7,74.8,29.54,SW,228,2.0,4.0,77,0.00,,,0.50,Wunderground v.1.15,2013-07-23 19:24:00,
2013-07-23 15:25:00,82.9,74.6,29.54,WSW,244,4.0,4.0,76,0.00,,,0.50,Wunderground v.1.15,2013-07-23 19:25:00,
2013-07-23 15:26:00,83.0,74.6,29.54,West,261,3.0,7.0,76,0.00,,,0.50,Wunderground v.1.15,2013-07-23 19:26:00,
2013-07-23 15:29:00,83.1,74.7,29.54,SW,217,6.0,9.0,76,0.00,,,0.50,Wunderground v.1.15,2013-07-23 19:29:00,
2013-07-23 15:31:00,83.0,73.9,29.54,SW,220,3.0,9.0,74,0.00,,,0.50,Wunderground v.1.15,2013-07-23 19:31:00,
2013-07-23 15:32:00,83.0,73.9,29.54,WSW,238,8.0,10.0,74,0.00,,,0.50,Wunderground v.1.15,2013-07-23 19:32:00,
2013-07-23 15:34:00,82.9,74.2,29.54,West,259,6.0,10.0,75,0.00,,,0.50,Wunderground v.1.15,2013-07-23 19:34:00,
2013-07-23 15:36:00,83.0,73.9,29.55,WSW,244,3.0,7.0,74,0.00,,,0.50,Wunderground v.1.15,2013-07-23 19:36:00,
2013-07-23 15:37:00,83.2,74.4,29.54,West,278,7.0,14.0,75,0.00,,,0.50,Wunderground v.1.15,2013-07-23 19:37:00,
2013-07-23 15:39:00,83.4,73.8,29.55,WSW,239,6.0,14.0,73,0.00,,,0.50,Wunderground v.1.15,2013-07-23 19:39:00,
2013-07-23 15:42:00,83.7,73.7,29.55,West,266,4.0,14.0,72,0.00,,,0.50,Wunderground v.1.15,2013-07-23 19:42:00,
2013-07-23 15:46:00,83.5,73.5,29.55,WSW,244,2.0,5.0,72,0.00,,,0.50,Wunderground v.1.15,2013-07-23 19:46:00,
2013-07-23 15:47:00,83.3,73.3,29.55,SW,224,4.0,9.0,72,0.00,,,0.50,Wunderground v.1.15,2013-07-23 19:47:00,
2013-07-23 15:48:00,83.1,73.1,29.55,WNW,285,4.0,12.0,72,0.00,,,0.50,Wunderground v.1.15,2013-07-23 19:48:00,
2013-07-23 15:51:00,82.7,73.6,29.55,SSW,213,1.0,12.0,74,0.00,,,0.50,Wunderground v.1.15,2013-07-23 19:51:00,
2013-07-23 15:52:00,82.7,73.6,29.55,SSW,206,4.0,12.0,74,0.00,,,0.50,Wunderground v.1.15,2013-07-23 19:52:00,
2013-07-23 15:53:00,82.7,73.6,29.55,WSW,244,4.0,12.0,74,0.00,,,0.50,Wunderground v.1.15,2013-07-23 19:53:00,
2013-07-23 15:56:00,82.6,74.3,29.55,SW,229,3.0,4.0,76,0.00,,,0.50,Wunderground v.1.15,2013-07-23 19:56:00,
2013-07-23 15:57:00,82.9,74.6,29.55,SSE,167,4.0,4.0,76,0.00,,,0.50,Wunderground v.1.15,2013-07-23 19:57:00,
2013-07-23 15:58:00,83.0,73.9,29.55,WNW,284,3.0,4.0,74,0.00,,,0.50,Wunderground v.1.15,2013-07-23 19:58:00,
2013-07-23 15:59:00,83.0,73.9,29.54,WNW,290,2.0,6.0,74,0.00,,,0.50,Wunderground v.1.15,2013-07-23 19:59:00,
2013-07-23 16:02:00,83.1,73.5,29.55,South,186,4.0,11.0,73,0.00,,,0.50,Wunderground v.1.15,2013-07-23 20:02:00,
2013-07-23 16:03:00,83.0,73.4,29.55,West,259,2.0,11.0,73,0.00,,,0.50,Wunderground v.1.15,2013-07-23 20:03:00,
2013-07-23 16:04:00,83.0,73.4,29.55,WNW,285,2.0,11.0,73,0.00,,,0.50,Wunderground v.1.15,2013-07-23 20:04:00,
2013-07-23 16:07:00,83.1,73.9,29.55,SSW,195,2.0,11.0,74,0.00,,,0.50,Wunderground v.1.15,2013-07-23 20:07:00,
2013-07-23 16:09:00,83.3,74.5,29.54,SW,217,3.0,11.0,75,0.00,,,0.50,Wunderground v.1.15,2013-07-23 20:09:00,
2013-07-23 16:12:00,83.7,74.5,29.55,SW,222,2.0,11.0,74,0.00,,,0.50,Wunderground v.1.15,2013-07-23 20:12:00,
2013-07-23 16:14:00,83.6,74.4,29.55,NW,312,3.0,4.0,74,0.00,,,0.50,Wunderground v.1.15,2013-07-23 20:14:00,
2013-07-23 16:19:00,81.7,71.4,29.56,NNW,328,12.0,19.0,71,0.00,,,0.50,Wunderground v.1.15,2013-07-23 20:19:00,
2013-07-23 16:20:00,81.2,71.3,29.56,NW,306,7.0,19.0,72,0.00,,,0.50,Wunderground v.1.15,2013-07-23 20:20:00,
2013-07-23 16:25:00,78.9,69.9,29.56,WSW,256,8.0,13.0,74,0.00,,,0.50,Wunderground v.1.15,2013-07-23 20:25:00,
2013-07-23 16:26:00,78.4,70.2,29.56,West,263,10.0,13.0,76,0.00,,,0.50,Wunderground v.1.15,2013-07-23 20:26:00,
2013-07-23 16:27:00,78.3,70.1,29.56,West,265,1.0,13.0,76,0.00,,,0.50,Wunderground v.1.15,2013-07-23 20:27:00,
2013-07-23 16:30:00,77.6,69.0,29.55,NW,326,8.0,14.0,75,0.00,,,0.50,Wunderground v.1.15,2013-07-23 20:30:00,
2013-07-23 16:32:00,77.1,68.6,29.56,West,268,3.0,14.0,75,0.00,,,0.50,Wunderground v.1.15,2013-07-23 20:32:00,
2013-07-23 16:33:00,77.0,68.9,29.56,West,277,3.0,14.0,76,0.00,,,0.50,Wunderground v.1.15,2013-07-23 20:33:00,
2013-07-23 16:35:00,76.4,68.3,29.56,WNW,302,5.0,15.0,76,0.00,,,0.50,Wunderground v.1.15,2013-07-23 20:35:00,
2013-07-23 16:36:00,76.3,68.2,29.56,NW,312,4.0,15.0,76,0.00,,,0.50,Wunderground v.1.15,2013-07-23 20:36:00,
2013-07-23 16:38:00,76.0,68.6,29.57,West,277,6.0,15.0,78,0.00,,,0.50,Wunderground v.1.15,2013-07-23 20:38:00,
2013-07-23 16:41:00,75.1,69.2,29.57,NW,311,6.0,15.0,82,3.51,,,0.54,Wunderground v.1.15,2013-07-23 20:41:00,
2013-07-23 16:43:00,73.6,68.8,29.57,ESE,108,7.0,22.0,85,1.40,,,0.60,Wunderground v.1.15,2013-07-23 20:43:00,
2013-07-23 16:46:00,72.1,68.0,29.57,NW,311,5.0,10.0,87,2.30,,,0.70,Wunderground v.1.15,2013-07-23 20:46:00,
2013-07-23 16:47:00,71.8,68.1,29.57,NW,308,7.0,10.0,88,1.06,,,0.70,Wunderground v.1.15,2013-07-23 20:47:00,
2013-07-23 16:49:00,71.4,67.7,29.57,NW,313,9.0,14.0,88,2.52,,,0.76,Wunderground v.1.15,2013-07-23 20:49:00,
2013-07-23 16:51:00,70.8,67.4,29.56,SW,232,2.0,14.0,89,1.96,,,0.84,Wunderground v.1.15,2013-07-23 20:51:00,
2013-07-23 16:52:00,70.8,67.4,29.56,West,267,3.0,14.0,89,1.03,,,0.85,Wunderground v.1.15,2013-07-23 20:52:00,
2013-07-23 16:54:00,70.6,67.2,29.56,SW,219,2.0,6.0,89,0.24,,,0.85,Wunderground v.1.15,2013-07-23 20:54:00,
2013-07-23 16:56:00,70.6,67.2,29.56,WSW,238,3.0,6.0,89,0.12,,,0.85,Wunderground v.1.15,2013-07-23 20:56:00,
2013-07-23 16:57:00,70.7,67.3,29.56,WSW,238,2.0,6.0,89,0.12,,,0.85,Wunderground v.1.15,2013-07-23 20:57:00,
2013-07-23 16:58:00,70.6,67.2,29.56,WSW,238,2.0,6.0,89,0.10,,,0.85,Wunderground v.1.15,2013-07-23 20:58:00,
2013-07-23 16:59:00,70.7,67.0,29.56,WSW,238,0.0,6.0,88,0.08,,,0.85,Wunderground v.1.15,2013-07-23 20:59:00,
2013-07-23 17:02:00,70.8,67.1,29.56,WSW,238,0.0,6.0,88,0.06,,,0.85,Wunderground v.1.15,2013-07-23 21:02:00,
2013-07-23 17:03:00,70.8,67.1,29.56,WSW,238,0.0,6.0,88,0.05,,,0.85,Wunderground v.1.15,2013-07-23 21:03:00,
2013-07-23 17:04:00,70.9,67.2,29.56,WSW,238,0.0,1.0,88,0.05,,,0.85,Wunderground v.1.15,2013-07-23 21:04:00,
2013-07-23 17:07:00,71.0,67.3,29.55,WSW,238,0.0,1.0,88,0.04,,,0.85,Wunderground v.1.15,2013-07-23 21:07:00,
2013-07-23 17:09:00,71.0,67.3,29.54,WSW,238,0.0,1.0,88,0.00,,,0.85,Wunderground v.1.15,2013-07-23 21:09:00,
2013-07-23 17:10:00,71.1,67.4,29.55,WSW,238,0.0,1.0,88,0.00,,,0.85,Wunderground v.1.15,2013-07-23 21:10:00,
2013-07-23 17:13:00,71.2,67.5,29.55,WSW,238,0.0,1.0,88,0.00,,,0.85,Wunderground v.1.15,2013-07-23 21:13:00,
2013-07-23 17:15:00,71.1,67.4,29.55,SW,214,1.0,2.0,88,0.00,,,0.85,Wunderground v.1.15,2013-07-23 21:15:00,
2013-07-23 17:18:00,71.0,67.6,29.56,SSW,213,1.0,4.0,89,0.00,,,0.85,Wunderground v.1.15,2013-07-23 21:18:00,
2013-07-23 17:19:00,71.0,67.6,29.56,SSW,213,0.0,4.0,89,0.00,,,0.85,Wunderground v.1.15,2013-07-23 21:19:00,
2013-07-23 17:21:00,71.0,67.6,29.55,South,177,1.0,4.0,89,0.00,,,0.85,Wunderground v.1.15,2013-07-23 21:21:00,
2013-07-23 17:23:00,71.0,67.3,29.55,South,177,0.0,4.0,88,0.00,,,0.85,Wunderground v.1.15,2013-07-23 21:23:00,
2013-07-23 17:24:00,71.1,67.4,29.56,SW,228,4.0,4.0,88,0.00,,,0.85,Wunderground v.1.15,2013-07-23 21:24:00,
2013-07-23 17:27:00,71.2,67.5,29.56,SW,229,0.0,2.0,88,0.00,,,0.85,Wunderground v.1.15,2013-07-23 21:27:00,
2013-07-23 17:28:00,71.2,67.5,29.56,SW,229,1.0,2.0,88,0.00,,,0.85,Wunderground v.1.15,2013-07-23 21:28:00,
2013-07-23 17:29:00,71.3,67.6,29.56,SW,229,2.0,3.0,88,0.00,,,0.85,Wunderground v.1.15,2013-07-23 21:29:00,
2013-07-23 17:33:00,71.3,67.6,29.55,South,170,1.0,5.0,88,0.00,,,0.85,Wunderground v.1.15,2013-07-23 21:33:00,
2013-07-23 17:34:00,71.2,67.5,29.55,South,170,1.0,5.0,88,0.00,,,0.85,Wunderground v.1.15,2013-07-23 21:34:00,
2013-07-23 17:38:00,71.2,67.5,29.56,SE,134,2.0,6.0,88,0.00,,,0.85,Wunderground v.1.15,2013-07-23 21:38:00,
2013-07-23 17:39:00,71.2,67.5,29.56,South,174,1.0,6.0,88,0.00,,,0.85,Wunderground v.1.15,2013-07-23 21:39:00,
2013-07-23 17:44:00,71.2,67.5,29.56,South,174,2.0,6.0,88,0.00,,,0.86,Wunderground v.1.15,2013-07-23 21:44:00,
2013-07-23 17:49:00,71.1,67.7,29.56,SSW,194,0.0,4.0,89,0.00,,,0.86,Wunderground v.1.15,2013-07-23 21:49:00,
2013-07-23 17:50:00,71.1,67.7,29.56,SSW,194,1.0,4.0,89,0.00,,,0.86,Wunderground v.1.15,2013-07-23 21:50:00,
2013-07-23 17:55:00,71.0,67.6,29.56,South,181,2.0,3.0,89,0.00,,,0.86,Wunderground v.1.15,2013-07-23 21:55:00,
2013-07-23 17:56:00,71.0,67.6,29.56,South,181,2.0,3.0,89,0.00,,,0.86,Wunderground v.1.15,2013-07-23 21:56:00,
2013-07-23 18:01:00,70.9,67.5,29.56,WSW,241,3.0,4.0,89,0.00,,,0.86,Wunderground v.1.15,2013-07-23 22:01:00,
2013-07-23 18:02:00,70.8,67.4,29.56,SW,225,1.0,4.0,89,0.00,,,0.86,Wunderground v.1.15,2013-07-23 22:02:00,
2013-07-23 18:06:00,70.8,67.4,29.56,SSW,211,2.0,2.0,89,0.00,,,0.86,Wunderground v.1.15,2013-07-23 22:06:00,
2013-07-23 18:07:00,70.7,67.3,29.56,SW,227,0.0,6.0,89,0.00,,,0.86,Wunderground v.1.15,2013-07-23 22:07:00,
2013-07-23 18:11:00,70.6,67.2,29.56,South,175,3.0,6.0,89,0.00,,,0.87,Wunderground v.1.15,2013-07-23 22:11:00,
2013-07-23 18:13:00,70.6,67.2,29.56,South,186,3.0,6.0,89,0.00,,,0.87,Wunderground v.1.15,2013-07-23 22:13:00,
2013-07-23 18:16:00,70.5,67.1,29.56,SE,144,0.0,2.0,89,0.00,,,0.87,Wunderground v.1.15,2013-07-23 22:16:00,
2013-07-23 18:18:00,70.5,67.1,29.56,SE,144,0.0,2.0,89,0.00,,,0.87,Wunderground v.1.15,2013-07-23 22:18:00,
2013-07-23 18:21:00,70.4,67.0,29.56,SE,144,0.0,2.0,89,0.00,,,0.87,Wunderground v.1.15,2013-07-23 22:21:00,
2013-07-23 18:23:00,70.4,67.0,29.57,SE,144,0.0,2.0,89,0.00,,,0.87,Wunderground v.1.15,2013-07-23 22:23:00,
2013-07-23 18:24:00,70.4,67.0,29.57,SE,144,1.0,2.0,89,0.00,,,0.87,Wunderground v.1.15,2013-07-23 22:24:00,
2013-07-23 18:26:00,70.4,67.0,29.57,SE,144,0.0,2.0,89,0.00,,,0.87,Wunderground v.1.15,2013-07-23 22:26:00,
2013-07-23 18:28:00,70.4,67.0,29.57,SE,144,1.0,2.0,89,0.00,,,0.87,Wunderground v.1.15,2013-07-23 22:28:00,
2013-07-23 18:29:00,70.4,67.0,29.57,SE,144,1.0,2.0,89,0.00,,,0.87,Wunderground v.1.15,2013-07-23 22:29:00,
2013-07-23 18:31:00,70.5,67.1,29.57,SE,144,1.0,2.0,89,0.00,,,0.87,Wunderground v.1.15,2013-07-23 22:31:00,
2013-07-23 18:33:00,70.4,67.0,29.57,SE,144,0.0,2.0,89,0.00,,,0.87,Wunderground v.1.15,2013-07-23 22:33:00,
2013-07-23 18:34:00,70.4,67.0,29.58,SE,144,0.0,2.0,89,0.00,,,0.87,Wunderground v.1.15,2013-07-23 22:34:00,
2013-07-23 18:37:00,70.4,67.0,29.58,SE,144,1.0,1.0,89,0.00,,,0.87,Wunderground v.1.15,2013-07-23 22:37:00,
2013-07-23 18:39:00,70.3,66.9,29.58,South,171,2.0,4.0,89,0.00,,,0.87,Wunderground v.1.15,2013-07-23 22:39:00,
2013-07-23 18:40:00,70.3,66.9,29.58,South,171,2.0,4.0,89,0.00,,,0.87,Wunderground v.1.15,2013-07-23 22:40:00,
2013-07-23 18:42:00,70.3,66.9,29.58,South,171,0.0,4.0,89,0.00,,,0.87,Wunderground v.1.15,2013-07-23 22:42:00,
2013-07-23 18:43:00,70.3,66.9,29.58,South,171,2.0,4.0,89,0.00,,,0.87,Wunderground v.1.15,2013-07-23 22:43:00,
2013-07-23 18:45:00,70.3,66.9,29.58,South,171,1.0,1.0,89,0.00,,,0.87,Wunderground v.1.15,2013-07-23 22:45:00,
2013-07-23 18:48:00,70.2,66.8,29.58,South,180,3.0,5.0,89,0.00,,,0.87,Wunderground v.1.15,2013-07-23 22:48:00,
2013-07-23 18:50:00,70.2,66.8,29.58,South,180,0.0,5.0,89,0.00,,,0.87,Wunderground v.1.15,2013-07-23 22:50:00,
2013-07-23 18:51:00,70.2,66.8,29.58,South,180,0.0,5.0,89,0.00,,,0.88,Wunderground v.1.15,2013-07-23 22:51:00,
2013-07-23 18:54:00,70.3,66.9,29.58,South,180,1.0,5.0,89,0.00,,,0.88,Wunderground v.1.15,2013-07-23 22:54:00,
2013-07-23 18:56:00,70.3,66.9,29.58,South,180,0.0,1.0,89,0.00,,,0.88,Wunderground v.1.15,2013-07-23 22:56:00,
2013-07-23 19:00:00,70.3,66.9,29.58,South,180,0.0,3.0,89,0.00,,,0.88,Wunderground v.1.15,2013-07-23 23:00:00,
2013-07-23 19:02:00,70.3,66.9,29.58,SE,144,0.0,3.0,89,0.00,,,0.88,Wunderground v.1.15,2013-07-23 23:02:00,
2013-07-23 19:04:00,70.3,66.9,29.58,SE,144,0.0,0.0,89,0.00,,,0.88,Wunderground v.1.15,2013-07-23 23:04:00,
2013-07-23 19:05:00,70.3,66.9,29.58,SE,144,0.0,0.0,89,0.00,,,0.88,Wunderground v.1.15,2013-07-23 23:05:00,
2013-07-23 19:07:00,70.3,66.9,29.58,SE,144,1.0,1.0,89,0.00,,,0.88,Wunderground v.1.15,2013-07-23 23:07:00,
2013-07-23 19:09:00,70.3,66.9,29.58,SE,144,2.0,2.0,89,0.00,,,0.88,Wunderground v.1.15,2013-07-23 23:09:00,
2013-07-23 19:11:00,70.3,66.9,29.58,SE,144,0.0,2.0,89,0.00,,,0.88,Wunderground v.1.15,2013-07-23 23:11:00,
2013-07-23 19:12:00,70.3,66.9,29.58,SE,144,0.0,2.0,89,0.00,,,0.88,Wunderground v.1.15,2013-07-23 23:12:00,
2013-07-23 19:15:00,70.2,66.8,29.58,SE,144,0.0,0.0,89,0.00,,,0.88,Wunderground v.1.15,2013-07-23 23:15:00,
2013-07-23 19:17:00,70.3,66.9,29.58,SE,144,1.0,2.0,89,0.00,,,0.88,Wunderground v.1.15,2013-07-23 23:17:00,
2013-07-23 19:20:00,70.3,66.6,29.59,SE,144,0.0,2.0,88,0.00,,,0.88,Wunderground v.1.15,2013-07-23 23:20:00,
2013-07-23 19:22:00,70.3,66.6,29.59,SE,144,0.0,2.0,88,0.00,,,0.88,Wunderground v.1.15,2013-07-23 23:22:00,
2013-07-23 19:25:00,70.3,66.6,29.59,SE,144,0.0,1.0,88,0.00,,,0.88,Wunderground v.1.15,2013-07-23 23:25:00,
2013-07-23 19:27:00,70.3,66.6,29.59,SE,144,0.0,1.0,88,0.00,,,0.88,Wunderground v.1.15,2013-07-23 23:27:00,
2013-07-23 19:28:00,70.3,66.6,29.59,SE,144,0.0,1.0,88,0.00,,,0.88,Wunderground v.1.15,2013-07-23 23:28:00,
2013-07-23 19:30:00,70.3,66.6,29.59,SE,144,0.0,1.0,88,0.00,,,0.88,Wunderground v.1.15,2013-07-23 23:30:00,
2013-07-23 19:32:00,70.3,66.6,29.58,SE,144,0.0,1.0,88,0.00,,,0.88,Wunderground v.1.15,2013-07-23 23:32:00,
2013-07-23 19:33:00,70.3,66.6,29.58,SE,144,1.0,1.0,88,0.00,,,0.88,Wunderground v.1.15,2013-07-23 23:33:00,
2013-07-23 19:36:00,70.3,66.6,29.58,SE,144,0.0,0.0,88,0.00,,,0.88,Wunderground v.1.15,2013-07-23 23:36:00,
2013-07-23 19:37:00,70.3,66.6,29.58,SE,144,0.0,0.0,88,0.00,,,0.88,Wunderground v.1.15,2013-07-23 23:37:00,
2013-07-23 19:38:00,70.3,66.6,29.59,SE,144,2.0,2.0,88,0.00,,,0.88,Wunderground v.1.15,2013-07-23 23:38:00,
2013-07-23 19:40:00,70.3,66.6,29.59,SE,144,0.0,2.0,88,0.00,,,0.88,Wunderground v.1.15,2013-07-23 23:40:00,
2013-07-23 19:42:00,70.4,66.7,29.58,SE,144,1.0,2.0,88,0.00,,,0.88,Wunderground v.1.15,2013-07-23 23:42:00,
2013-07-23 19:43:00,70.4,66.7,29.58,SE,144,0.0,2.0,88,0.00,,,0.88,Wunderground v.1.15,2013-07-23 23:43:00,
2013-07-23 19:44:00,70.3,66.6,29.58,SE,144,0.0,2.0,88,0.00,,,0.88,Wunderground v.1.15,2013-07-23 23:44:00,
2013-07-23 19:45:00,70.3,66.6,29.59,SE,144,0.0,0.0,88,0.00,,,0.88,Wunderground v.1.15,2013-07-23 23:45:00,
2013-07-23 19:47:00,70.4,66.7,29.59,SE,144,0.0,0.0,88,0.00,,,0.88,Wunderground v.1.15,2013-07-23 23:47:00,
2013-07-23 19:48:00,70.5,66.8,29.59,SE,144,0.0,1.0,88,0.00,,,0.88,Wunderground v.1.15,2013-07-23 23:48:00,
2013-07-23 19:49:00,70.6,66.9,29.59,SE,144,0.0,1.0,88,0.00,,,0.88,Wunderground v.1.15,2013-07-23 23:49:00,
2013-07-23 19:50:00,70.6,66.9,29.59,SE,144,0.0,1.0,88,0.00,,,0.88,Wunderground v.1.15,2013-07-23 23:50:00,
2013-07-23 19:53:00,70.7,67.0,29.59,SE,144,0.0,1.0,88,0.00,,,0.88,Wunderground v.1.15,2013-07-23 23:53:00,
2013-07-23 19:54:00,70.7,67.0,29.59,SE,144,0.0,1.0,88,0.00,,,0.88,Wunderground v.1.15,2013-07-23 23:54:00,
2013-07-23 19:56:00,70.7,67.0,29.59,SE,144,0.0,0.0,88,0.00,,,0.88,Wunderground v.1.15,2013-07-23 23:56:00,
2013-07-23 19:58:00,70.8,67.1,29.59,SE,144,0.0,1.0,88,0.00,,,0.88,Wunderground v.1.15,2013-07-23 23:58:00,
2013-07-23 20:02:00,70.7,67.0,29.59,SE,144,0.0,1.0,88,0.00,,,0.88,Wunderground v.1.15,2013-07-24 00:02:00,
2013-07-23 20:03:00,70.7,67.0,29.59,SE,144,0.0,1.0,88,0.00,,,0.88,Wunderground v.1.15,2013-07-24 00:03:00,
2013-07-23 20:06:00,70.6,66.9,29.60,SE,144,0.0,1.0,88,0.00,,,0.88,Wunderground v.1.15,2013-07-24 00:06:00,
2013-07-23 20:07:00,70.6,66.9,29.59,SE,144,0.0,1.0,88,0.00,,,0.88,Wunderground v.1.15,2013-07-24 00:07:00,
2013-07-23 20:09:00,70.6,66.9,29.59,SE,144,0.0,1.0,88,0.00,,,0.88,Wunderground v.1.15,2013-07-24 00:09:00,
2013-07-23 20:12:00,70.7,67.0,29.59,SE,144,0.0,1.0,88,0.00,,,0.88,Wunderground v.1.15,2013-07-24 00:12:00,
2013-07-23 20:13:00,70.7,67.0,29.59,SE,144,0.0,1.0,88,0.00,,,0.88,Wunderground v.1.15,2013-07-24 00:13:00,
2013-07-23 20:14:00,70.7,67.0,29.60,SE,144,0.0,0.0,88,0.00,,,0.88,Wunderground v.1.15,2013-07-24 00:14:00,
2013-07-23 20:17:00,70.7,67.0,29.59,SE,144,0.0,0.0,88,0.00,,,0.88,Wunderground v.1.15,2013-07-24 00:17:00,
2013-07-23 20:20:00,70.8,67.1,29.59,SE,144,0.0,0.0,88,0.00,,,0.88,Wunderground v.1.15,2013-07-24 00:20:00,
2013-07-23 20:22:00,70.8,67.1,29.59,SE,144,0.0,0.0,88,0.00,,,0.88,Wunderground v.1.15,2013-07-24 00:22:00,
2013-07-23 20:23:00,70.8,67.1,29.59,SE,144,0.0,0.0,88,0.00,,,0.88,Wunderground v.1.15,2013-07-24 00:23:00,
2013-07-23 20:26:00,70.8,67.1,29.59,SE,144,0.0,0.0,88,0.00,,,0.88,Wunderground v.1.15,2013-07-24 00:26:00,
2013-07-23 20:27:00,70.8,67.1,29.59,SE,144,0.0,1.0,88,0.00,,,0.88,Wunderground v.1.15,2013-07-24 00:27:00,
2013-07-23 20:29:00,70.8,67.1,29.59,SE,144,0.0,1.0,88,0.00,,,0.88,Wunderground v.1.15,2013-07-24 00:29:00,
2013-07-23 20:31:00,70.7,67.0,29.59,SE,144,0.0,1.0,88,0.00,,,0.88,Wunderground v.1.15,2013-07-24 00:31:00,
2013-07-23 20:32:00,70.7,67.0,29.59,SE,144,0.0,1.0,88,0.00,,,0.88,Wunderground v.1.15,2013-07-24 00:32:00,
2013-07-23 20:33:00,70.7,67.0,29.59,SE,144,0.0,1.0,88,0.00,,,0.88,Wunderground v.1.15,2013-07-24 00:33:00,
2013-07-23 20:34:00,70.7,67.0,29.59,SE,144,0.0,0.0,88,0.00,,,0.88,Wunderground v.1.15,2013-07-24 00:34:00,
2013-07-23 20:38:00,70.6,66.9,29.60,SE,144,0.0,0.0,88,0.00,,,0.88,Wunderground v.1.15,2013-07-24 00:38:00,
2013-07-23 20:39:00,70.7,67.0,29.60,SE,144,0.0,0.0,88,0.00,,,0.88,Wunderground v.1.15,2013-07-24 00:39:00,
2013-07-23 20:40:00,70.7,67.0,29.60,SE,144,0.0,0.0,88,0.00,,,0.88,Wunderground v.1.15,2013-07-24 00:40:00,
2013-07-23 20:44:00,70.7,67.0,29.60,SE,144,1.0,1.0,88,0.00,,,0.88,Wunderground v.1.15,2013-07-24 00:44:00,
2013-07-23 20:46:00,70.6,66.9,29.59,SE,144,0.0,0.0,88,0.00,,,0.88,Wunderground v.1.15,2013-07-24 00:46:00,
2013-07-23 20:49:00,70.6,66.9,29.60,SE,144,0.0,0.0,88,0.00,,,0.88,Wunderground v.1.15,2013-07-24 00:49:00,
2013-07-23 20:50:00,70.6,66.9,29.60,SE,144,0.0,0.0,88,0.00,,,0.88,Wunderground v.1.15,2013-07-24 00:50:00,
2013-07-23 20:51:00,70.6,66.9,29.60,SE,144,1.0,1.0,88,0.00,,,0.88,Wunderground v.1.15,2013-07-24 00:51:00,
2013-07-23 20:52:00,70.6,66.9,29.60,SE,144,0.0,2.0,88,0.00,,,0.88,Wunderground v.1.15,2013-07-24 00:52:00,
2013-07-23 20:55:00,70.6,66.9,29.60,SE,144,0.0,1.0,88,0.00,,,0.88,Wunderground v.1.15,2013-07-24 00:55:00,
2013-07-23 20:56:00,70.6,66.9,29.60,SE,144,0.0,1.0,88,0.00,,,0.88,Wunderground v.1.15,2013-07-24 00:56:00,
2013-07-23 20:58:00,70.6,66.9,29.60,SE,144,1.0,1.0,88,0.00,,,0.88,Wunderground v.1.15,2013-07-24 00:58:00,
2013-07-23 21:00:00,70.6,66.9,29.60,SE,144,0.0,1.0,88,0.00,,,0.88,Wunderground v.1.15,2013-07-24 01:00:00,
2013-07-23 21:01:00,70.6,66.9,29.60,SE,144,0.0,1.0,88,0.00,,,0.88,Wunderground v.1.15,2013-07-24 01:01:00,
2013-07-23 21:03:00,70.6,66.9,29.60,SE,144,0.0,1.0,88,0.00,,,0.88,Wunderground v.1.15,2013-07-24 01:03:00,
2013-07-23 21:06:00,70.6,66.9,29.60,SE,144,1.0,1.0,88,0.00,,,0.88,Wunderground v.1.15,2013-07-24 01:06:00,
2013-07-23 21:07:00,70.6,66.9,29.60,SE,144,1.0,1.0,88,0.00,,,0.88,Wunderground v.1.15,2013-07-24 01:07:00,
2013-07-23 21:08:00,70.6,66.9,29.60,SE,144,2.0,2.0,88,0.00,,,0.88,Wunderground v.1.15,2013-07-24 01:08:00,
2013-07-23 21:11:00,70.6,66.9,29.60,SE,144,0.0,2.0,88,0.00,,,0.88,Wunderground v.1.15,2013-07-24 01:11:00,
2013-07-23 21:12:00,70.6,66.9,29.60,SE,144,0.0,2.0,88,0.00,,,0.88,Wunderground v.1.15,2013-07-24 01:12:00,
2013-07-23 21:13:00,70.6,66.9,29.60,SE,144,0.0,2.0,88,0.00,,,0.88,Wunderground v.1.15,2013-07-24 01:13:00,
2013-07-23 21:17:00,70.6,66.9,29.60,SE,144,1.0,1.0,88,0.00,,,0.88,Wunderground v.1.15,2013-07-24 01:17:00,
2013-07-23 21:18:00,70.6,66.9,29.60,SE,144,0.0,1.0,88,0.00,,,0.88,Wunderground v.1.15,2013-07-24 01:18:00,
2013-07-23 21:19:00,70.6,66.9,29.60,SE,144,0.0,1.0,88,0.00,,,0.88,Wunderground v.1.15,2013-07-24 01:19:00,
2013-07-23 21:23:00,70.6,66.9,29.60,SE,144,0.0,1.0,88,0.00,,,0.88,Wunderground v.1.15,2013-07-24 01:23:00,
2013-07-23 21:24:00,70.6,66.9,29.60,SE,144,0.0,1.0,88,0.00,,,0.88,Wunderground v.1.15,2013-07-24 01:24:00,
2013-07-23 21:30:00,70.6,66.9,29.60,SE,144,0.0,0.0,88,0.00,,,0.88,Wunderground v.1.15,2013-07-24 01:30:00,
2013-07-23 21:36:00,70.6,66.9,29.61,SE,144,0.0,0.0,88,0.00,,,0.88,Wunderground v.1.15,2013-07-24 01:36:00,
2013-07-23 21:41:00,70.5,66.8,29.61,SE,144,0.0,0.0,88,0.00,,,0.88,Wunderground v.1.15,2013-07-24 01:41:00,
2013-07-23 21:46:00,70.5,66.8,29.61,SE,144,0.0,0.0,88,0.00,,,0.88,Wunderground v.1.15,2013-07-24 01:46:00,
2013-07-23 21:47:00,70.5,66.8,29.61,SE,144,0.0,0.0,88,0.00,,,0.88,Wunderground v.1.15,2013-07-24 01:47:00,
2013-07-23 21:51:00,70.4,66.7,29.61,SE,144,1.0,1.0,88,0.00,,,0.88,Wunderground v.1.15,2013-07-24 01:51:00,
2013-07-23 21:52:00,70.4,66.7,29.61,SE,144,1.0,1.0,88,0.00,,,0.88,Wunderground v.1.15,2013-07-24 01:52:00,
2013-07-23 21:57:00,70.4,66.7,29.61,SE,144,0.0,1.0,88,0.00,,,0.88,Wunderground v.1.15,2013-07-24 01:57:00,
2013-07-23 21:58:00,70.4,66.7,29.61,SE,144,0.0,1.0,88,0.00,,,0.88,Wunderground v.1.15,2013-07-24 01:58:00,
2013-07-23 22:02:00,70.4,66.7,29.61,SE,144,0.0,1.0,88,0.00,,,0.88,Wunderground v.1.15,2013-07-24 02:02:00,
2013-07-23 22:04:00,70.4,66.7,29.61,SE,144,0.0,1.0,88,0.00,,,0.88,Wunderground v.1.15,2013-07-24 02:04:00,
2013-07-23 22:07:00,70.3,66.6,29.61,SE,144,0.0,1.0,88,0.00,,,0.88,Wunderground v.1.15,2013-07-24 02:07:00,
2013-07-23 22:08:00,70.3,66.6,29.61,SE,144,0.0,1.0,88,0.00,,,0.88,Wunderground v.1.15,2013-07-24 02:08:00,
2013-07-23 22:10:00,70.3,66.6,29.61,SE,144,0.0,1.0,88,0.00,,,0.88,Wunderground v.1.15,2013-07-24 02:10:00,
2013-07-23 22:12:00,70.3,66.6,29.61,SE,144,0.0,1.0,88,0.00,,,0.88,Wunderground v.1.15,2013-07-24 02:12:00,
2013-07-23 22:13:00,70.3,66.6,29.61,SE,144,0.0,1.0,88,0.00,,,0.88,Wunderground v.1.15,2013-07-24 02:13:00,
2013-07-23 22:15:00,70.3,66.6,29.61,SE,144,0.0,0.0,88,0.00,,,0.88,Wunderground v.1.15,2013-07-24 02:15:00,
2013-07-23 22:17:00,70.3,66.6,29.61,SE,144,0.0,1.0,88,0.00,,,0.88,Wunderground v.1.15,2013-07-24 02:17:00,
2013-07-23 22:19:00,70.3,66.6,29.61,SE,144,1.0,1.0,88,0.00,,,0.88,Wunderground v.1.15,2013-07-24 02:19:00,
2013-07-23 22:20:00,70.4,66.7,29.61,SE,144,0.0,1.0,88,0.00,,,0.88,Wunderground v.1.15,2013-07-24 02:20:00,
2013-07-23 22:24:00,70.4,66.3,29.61,ESE,109,1.0,3.0,87,0.00,,,0.88,Wunderground v.1.15,2013-07-24 02:24:00,
2013-07-23 22:25:00,70.4,66.3,29.61,ESE,109,1.0,2.0,87,0.00,,,0.88,Wunderground v.1.15,2013-07-24 02:25:00,
2013-07-23 22:27:00,70.4,66.3,29.61,ESE,109,0.0,2.0,87,0.00,,,0.88,Wunderground v.1.15,2013-07-24 02:27:00,
2013-07-23 22:30:00,70.4,66.3,29.61,ESE,109,1.0,2.0,87,0.00,,,0.88,Wunderground v.1.15,2013-07-24 02:30:00,
2013-07-23 22:32:00,70.4,66.3,29.61,ESE,109,0.0,2.0,87,0.00,,,0.88,Wunderground v.1.15,2013-07-24 02:32:00,
2013-07-23 22:35:00,70.5,66.4,29.60,ENE,59,1.0,2.0,87,0.00,,,0.88,Wunderground v.1.15,2013-07-24 02:35:00,
2013-07-23 22:36:00,70.5,66.4,29.60,ENE,59,1.0,2.0,87,0.00,,,0.88,Wunderground v.1.15,2013-07-24 02:36:00,
2013-07-23 22:38:00,70.6,66.5,29.61,ENE,59,0.0,2.0,87,0.00,,,0.88,Wunderground v.1.15,2013-07-24 02:38:00,
2013-07-23 22:40:00,70.6,66.5,29.61,ENE,59,2.0,2.0,87,0.00,,,0.88,Wunderground v.1.15,2013-07-24 02:40:00,
2013-07-23 22:41:00,70.6,66.5,29.61,ENE,59,1.0,2.0,87,0.00,,,0.88,Wunderground v.1.15,2013-07-24 02:41:00,
2013-07-23 22:43:00,70.6,66.5,29.61,ENE,59,0.0,2.0,87,0.00,,,0.88,Wunderground v.1.15,2013-07-24 02:43:00,
2013-07-23 22:45:00,70.6,66.5,29.61,ENE,59,0.0,1.0,87,0.00,,,0.88,Wunderground v.1.15,2013-07-24 02:45:00,
2013-07-23 22:47:00,70.6,66.5,29.61,ENE,59,0.0,1.0,87,0.00,,,0.88,Wunderground v.1.15,2013-07-24 02:47:00,
2013-07-23 22:48:00,70.6,66.5,29.60,ENE,59,0.0,1.0,87,0.00,,,0.88,Wunderground v.1.15,2013-07-24 02:48:00,
2013-07-23 22:49:00,70.6,66.5,29.60,ENE,59,1.0,1.0,87,0.00,,,0.88,Wunderground v.1.15,2013-07-24 02:49:00,
2013-07-23 22:50:00,70.6,66.5,29.61,ENE,59,0.0,1.0,87,0.00,,,0.88,Wunderground v.1.15,2013-07-24 02:50:00,
2013-07-23 22:53:00,70.6,66.5,29.60,ENE,59,1.0,2.0,87,0.00,,,0.88,Wunderground v.1.15,2013-07-24 02:53:00,
2013-07-23 22:55:00,70.6,66.5,29.61,ENE,59,0.0,1.0,87,0.00,,,0.88,Wunderground v.1.15,2013-07-24 02:55:00,
2013-07-23 22:56:00,70.6,66.5,29.61,ENE,59,1.0,1.0,87,0.00,,,0.88,Wunderground v.1.15,2013-07-24 02:56:00,
2013-07-23 22:58:00,70.6,66.5,29.61,ENE,59,2.0,2.0,87,0.00,,,0.88,Wunderground v.1.15,2013-07-24 02:58:00,
2013-07-23 22:59:00,70.6,66.5,29.60,ENE,59,0.0,2.0,87,0.00,,,0.88,Wunderground v.1.15,2013-07-24 02:59:00,
2013-07-23 23:02:00,70.6,66.5,29.60,NE,42,3.0,3.0,87,0.00,,,0.88,Wunderground v.1.15,2013-07-24 03:02:00,
2013-07-23 23:03:00,70.6,66.5,29.60,NE,38,1.0,3.0,87,0.00,,,0.88,Wunderground v.1.15,2013-07-24 03:03:00,
2013-07-23 23:04:00,70.6,66.5,29.60,NE,38,0.0,3.0,87,0.00,,,0.88,Wunderground v.1.15,2013-07-24 03:04:00,
2013-07-23 23:05:00,70.6,66.5,29.60,NE,38,0.0,1.0,87,0.00,,,0.88,Wunderground v.1.15,2013-07-24 03:05:00,
2013-07-23 23:07:00,70.6,66.5,29.60,NE,38,2.0,2.0,87,0.00,,,0.88,Wunderground v.1.15,2013-07-24 03:07:00,
2013-07-23 23:09:00,70.6,66.5,29.60,NW,318,2.0,4.0,87,0.00,,,0.88,Wunderground v.1.15,2013-07-24 03:09:00,
2013-07-23 23:10:00,70.6,66.5,29.60,NW,318,0.0,4.0,87,0.00,,,0.88,Wunderground v.1.15,2013-07-24 03:10:00,
2013-07-23 23:12:00,70.6,66.5,29.60,NW,325,3.0,4.0,87,0.00,,,0.88,Wunderground v.1.15,2013-07-24 03:12:00,
2013-07-23 23:15:00,70.5,66.4,29.60,NW,326,0.0,1.0,87,0.00,,,0.88,Wunderground v.1.15,2013-07-24 03:15:00,
2013-07-23 23:17:00,70.5,66.4,29.60,NW,326,0.0,2.0,87,0.00,,,0.88,Wunderground v.1.15,2013-07-24 03:17:00,
2013-07-23 23:20:00,70.5,66.4,29.60,NW,326,0.0,2.0,87,0.00,,,0.88,Wunderground v.1.15,2013-07-24 03:20:00,
2013-07-23 23:21:00,70.5,66.4,29.60,NW,326,0.0,2.0,87,0.00,,,0.88,Wunderground v.1.15,2013-07-24 03:21:00,
2013-07-23 23:24:00,70.6,66.5,29.61,NW,326,1.0,2.0,87,0.00,,,0.88,Wunderground v.1.15,2013-07-24 03:24:00,
2013-07-23 23:25:00,70.6,66.5,29.61,NW,326,0.0,1.0,87,0.00,,,0.88,Wunderground v.1.15,2013-07-24 03:25:00,
2013-07-23 23:26:00,70.6,66.5,29.61,NW,326,0.0,1.0,87,0.00,,,0.88,Wunderground v.1.15,2013-07-24 03:26:00,
2013-07-23 23:29:00,70.6,66.5,29.61,NW,326,0.0,1.0,87,0.00,,,0.88,Wunderground v.1.15,2013-07-24 03:29:00,
2013-07-23 23:31:00,70.6,66.5,29.61,NW,326,1.0,2.0,87,0.00,,,0.88,Wunderground v.1.15,2013-07-24 03:31:00,
2013-07-23 23:33:00,70.6,66.5,29.61,NW,326,0.0,2.0,87,0.00,,,0.88,Wunderground v.1.15,2013-07-24 03:33:00,
2013-07-23 23:34:00,70.6,66.5,29.61,NW,326,1.0,2.0,87,0.00,,,0.88,Wunderground v.1.15,2013-07-24 03:34:00,
2013-07-23 23:36:00,70.6,66.5,29.61,NW,326,1.0,2.0,87,0.00,,,0.88,Wunderground v.1.15,2013-07-24 03:36:00,
2013-07-23 23:37:00,70.6,66.5,29.61,NW,326,2.0,2.0,87,0.00,,,0.88,Wunderground v.1.15,2013-07-24 03:37:00,
2013-07-23 23:38:00,70.6,66.5,29.61,NW,326,0.0,2.0,87,0.00,,,0.88,Wunderground v.1.15,2013-07-24 03:38:00,
2013-07-23 23:39:00,70.6,66.5,29.61,NW,326,0.0,2.0,87,0.00,,,0.88,Wunderground v.1.15,2013-07-24 03:39:00,
2013-07-23 23:40:00,70.8,66.7,29.61,NW,326,2.0,2.0,87,0.00,,,0.88,Wunderground v.1.15,2013-07-24 03:40:00,
2013-07-23 23:41:00,70.8,66.7,29.61,NW,326,0.0,2.0,87,0.00,,,0.00,Wunderground v.1.15,2013-07-24 03:41:00,
2013-07-23 23:42:00,70.6,66.5,29.61,NW,326,1.0,2.0,87,0.00,,,0.88,Wunderground v.1.15,2013-07-24 03:42:00,
2013-07-23 23:43:00,70.7,66.6,29.61,NW,326,0.0,2.0,87,0.00,,,0.88,Wunderground v.1.15,2013-07-24 03:43:00,
2013-07-23 23:44:00,70.7,66.6,29.62,NW,326,0.0,1.0,87,0.00,,,0.88,Wunderground v.1.15,2013-07-24 03:44:00,
2013-07-23 23:45:00,70.7,66.6,29.62,NW,326,0.0,1.0,87,0.00,,,0.88,Wunderground v.1.15,2013-07-24 03:45:00,
2013-07-23 23:47:00,70.7,66.6,29.61,NW,326,1.0,1.0,87,0.00,,,0.88,Wunderground v.1.15,2013-07-24 03:47:00,
2013-07-23 23:49:00,70.7,66.6,29.62,NW,326,0.0,1.0,87,0.00,,,0.88,Wunderground v.1.15,2013-07-24 03:49:00,
2013-07-23 23:51:00,70.7,66.6,29.61,NW,326,1.0,1.0,87,0.00,,,0.88,Wunderground v.1.15,2013-07-24 03:51:00,
2013-07-23 23:52:00,70.7,66.6,29.61,NW,326,0.0,1.0,87,0.00,,,0.88,Wunderground v.1.15,2013-07-24 03:52:00,
2013-07-23 23:54:00,70.7,66.6,29.61,NW,326,0.0,1.0,87,0.00,,,0.88,Wunderground v.1.15,2013-07-24 03:54:00,
2013-07-23 23:56:00,70.7,66.6,29.61,NW,326,0.0,2.0,87,0.00,,,0.88,Wunderground v.1.15,2013-07-24 03:56:00,
2013-07-23 23:57:00,70.7,66.6,29.61,NW,326,0.0,2.0,87,0.00,,,0.88,Wunderground v.1.15,2013-07-24 03:57:00,